Wetterdaten: Montag, 25.06.2018
Datum Zeit Temp. Aussen Temp. o. S. +5cm Feuchte Auss Luftdruck Regen Sonnenschein Regendauer Solar Windben Empfang
25.06.2018 00:00 14,3 C 13,9 C 13,3 C 91 % 1020,9 hPa 0,0 l/m 0 min 0 min 0 W/m 4,5 km/h (1 Bft) 100,00 %
25.06.2018 00:02 14,3 C 13,9 C 13,3 C 91 % 1020,9 hPa 0,0 l/m 0 min 0 min 0 W/m 6,8 km/h (2 Bft) 100,00 %
25.06.2018 00:04 14,3 C 13,9 C 13,3 C 91 % 1020,9 hPa 0,0 l/m 0 min 0 min 0 W/m 6,8 km/h (2 Bft) 100,00 %
25.06.2018 00:07 14,3 C 13,9 C 13,3 C 91 % 1021,0 hPa 0,0 l/m 0 min 0 min 0 W/m 4,5 km/h (1 Bft) 100,00 %
25.06.2018 00:08 14,3 C 13,9 C 13,3 C 91 % 1021,0 hPa 0,0 l/m 0 min 0 min 0 W/m 4,5 km/h (1 Bft) 100,00 %
25.06.2018 00:10 14,3 C 13,9 C 13,3 C 91 % 1021,0 hPa 0,0 l/m 0 min 0 min 0 W/m 2,3 km/h (1 Bft) 100,00 %
25.06.2018 00:12 14,3 C 13,9 C 13,3 C 91 % 1021,0 hPa 0,0 l/m 0 min 0 min 0 W/m 4,5 km/h (1 Bft) 100,00 %
25.06.2018 00:14 14,2 C 13,9 C 13,3 C 91 % 1020,9 hPa 0,0 l/m 0 min 0 min 0 W/m 4,5 km/h (1 Bft) 100,00 %
25.06.2018 00:16 14,2 C 13,3 C 13,3 C 91 % 1020,9 hPa 0,0 l/m 0 min 0 min 0 W/m 6,8 km/h (2 Bft) 97,87 %
25.06.2018 00:18 14,2 C 13,3 C 13,3 C 91 % 1020,9 hPa 0,0 l/m 0 min 0 min 0 W/m 4,5 km/h (1 Bft) 97,87 %
25.06.2018 00:20 14,2 C 13,3 C 13,3 C 91 % 1021,1 hPa 0,0 l/m 0 min 0 min 0 W/m 4,5 km/h (1 Bft) 97,87 %
25.06.2018 00:22 14,2 C 13,3 C 13,3 C 91 % 1021,2 hPa 0,0 l/m 0 min 0 min 0 W/m 9,0 km/h (2 Bft) 97,83 %
25.06.2018 00:24 14,2 C 13,3 C 13,3 C 91 % 1021,2 hPa 0,0 l/m 0 min 0 min 0 W/m 4,5 km/h (1 Bft) 100,00 %
25.06.2018 00:26 14,2 C 13,3 C 13,3 C 91 % 1021,2 hPa 0,0 l/m 0 min 0 min 0 W/m 6,8 km/h (2 Bft) 100,00 %
25.06.2018 00:28 14,2 C 13,3 C 13,3 C 91 % 1021,2 hPa 0,0 l/m 0 min 0 min 0 W/m 2,3 km/h (1 Bft) 100,00 %
25.06.2018 00:30 14,2 C 13,3 C 13,3 C 91 % 1021,1 hPa 0,0 l/m 0 min 0 min 0 W/m 6,8 km/h (2 Bft) 97,87 %
25.06.2018 00:32 14,2 C 13,3 C 13,3 C 91 % 1021,1 hPa 0,0 l/m 0 min 0 min 0 W/m 6,8 km/h (2 Bft) 97,87 %
25.06.2018 00:34 14,2 C 13,9 C 13,3 C 91 % 1021,2 hPa 0,0 l/m 0 min 0 min 0 W/m 6,8 km/h (2 Bft) 100,00 %
25.06.2018 00:36 14,2 C 13,3 C 13,3 C 91 % 1021,2 hPa 0,0 l/m 0 min 0 min 0 W/m 4,5 km/h (1 Bft) 97,87 %
25.06.2018 00:38 14,2 C 13,9 C 13,3 C 91 % 1021,2 hPa 0,0 l/m 0 min 0 min 0 W/m 9,0 km/h (2 Bft) 97,87 %
25.06.2018 00:40 14,2 C 13,9 C 13,3 C 91 % 1021,2 hPa 0,0 l/m 0 min 0 min 0 W/m 9,0 km/h (2 Bft) 95,74 %
25.06.2018 00:42 14,2 C 13,9 C 13,3 C 91 % 1021,1 hPa 0,0 l/m 0 min 0 min 0 W/m 4,5 km/h (1 Bft) 97,87 %
25.06.2018 00:44 14,2 C 13,3 C 13,3 C 91 % 1021,1 hPa 0,0 l/m 0 min 0 min 0 W/m 6,8 km/h (2 Bft) 97,83 %
25.06.2018 00:46 14,2 C 13,3 C 13,3 C 91 % 1021,1 hPa 0,0 l/m 0 min 0 min 0 W/m 9,0 km/h (2 Bft) 97,87 %
25.06.2018 00:48 14,2 C 13,3 C 13,3 C 91 % 1021,1 hPa 0,0 l/m 0 min 0 min 0 W/m 13,5 km/h (3 Bft) 97,87 %
25.06.2018 00:50 14,2 C 13,3 C 13,3 C 91 % 1021,2 hPa 0,0 l/m 0 min 0 min 0 W/m 4,5 km/h (1 Bft) 97,87 %
25.06.2018 00:52 14,2 C 13,3 C 13,3 C 91 % 1021,2 hPa 0,0 l/m 0 min 0 min 0 W/m 6,8 km/h (2 Bft) 97,87 %
25.06.2018 00:54 14,2 C 13,3 C 13,3 C 91 % 1021,1 hPa 0,0 l/m 0 min 0 min 0 W/m 4,5 km/h (1 Bft) 97,87 %
25.06.2018 00:56 14,2 C 13,3 C 13,3 C 91 % 1021,1 hPa 0,0 l/m 0 min 0 min 0 W/m 11,3 km/h (2 Bft) 97,83 %
25.06.2018 00:58 14,2 C 13,3 C 13,3 C 92 % 1021,1 hPa 0,0 l/m 0 min 0 min 0 W/m 9,0 km/h (2 Bft) 95,74 %
25.06.2018 01:00 14,2 C 13,3 C 13,3 C 92 % 1021,1 hPa 0,0 l/m 0 min 0 min 0 W/m 11,3 km/h (2 Bft) 97,87 %
25.06.2018 01:02 14,2 C 13,3 C 13,3 C 92 % 1021,1 hPa 0,0 l/m 0 min 0 min 0 W/m 9,0 km/h (2 Bft) 97,87 %
25.06.2018 01:04 14,1 C 13,3 C 13,3 C 92 % 1021,0 hPa 0,0 l/m 0 min 0 min 0 W/m 9,0 km/h (2 Bft) 95,74 %
25.06.2018 01:06 14,1 C 13,3 C 13,3 C 92 % 1021,0 hPa 0,0 l/m 0 min 0 min 0 W/m 6,8 km/h (2 Bft) 96,23 %
25.06.2018 01:08 14,1 C 13,3 C 13,3 C 92 % 1021,0 hPa 0,0 l/m 0 min 0 min 0 W/m 6,8 km/h (2 Bft) 95,74 %
25.06.2018 01:10 14,1 C 13,3 C 13,3 C 92 % 1021,1 hPa 0,0 l/m 0 min 0 min 0 W/m 9,0 km/h (2 Bft) 97,87 %
25.06.2018 01:12 14,1 C 13,3 C 13,3 C 92 % 1021,1 hPa 0,0 l/m 0 min 0 min 0 W/m 6,8 km/h (2 Bft) 97,83 %
25.06.2018 01:14 14,1 C 13,3 C 13,3 C 92 % 1021,1 hPa 0,0 l/m 0 min 0 min 0 W/m 4,5 km/h (1 Bft) 100,00 %
25.06.2018 01:16 14,1 C 13,3 C 13,3 C 92 % 1021,0 hPa 0,0 l/m 0 min 0 min 0 W/m 4,5 km/h (1 Bft) 97,87 %
25.06.2018 01:18 14,1 C 13,3 C 13,3 C 92 % 1021,0 hPa 0,0 l/m 0 min 0 min 0 W/m 2,3 km/h (1 Bft) 97,87 %
25.06.2018 01:20 14,1 C 13,3 C 13,3 C 92 % 1021,0 hPa 0,0 l/m 0 min 0 min 0 W/m 6,8 km/h (2 Bft) 97,87 %
25.06.2018 01:22 14,1 C 13,3 C 13,3 C 92 % 1021,0 hPa 0,0 l/m 0 min 0 min 0 W/m 2,3 km/h (1 Bft) 100,00 %
25.06.2018 01:24 14,1 C 13,3 C 13,3 C 92 % 1021,0 hPa 0,0 l/m 0 min 0 min 0 W/m 4,5 km/h (1 Bft) 100,00 %
25.06.2018 01:26 14,1 C 13,3 C 13,3 C 92 % 1021,0 hPa 0,0 l/m 0 min 0 min 0 W/m 4,5 km/h (1 Bft) 100,00 %
25.06.2018 01:28 14,1 C 13,3 C 13,3 C 92 % 1020,9 hPa 0,0 l/m 0 min 0 min 0 W/m 6,8 km/h (2 Bft) 95,74 %
25.06.2018 01:30 14,1 C 13,3 C 13,3 C 92 % 1020,9 hPa 0,0 l/m 0 min 0 min 0 W/m 6,8 km/h (2 Bft) 97,87 %
25.06.2018 01:32 14,1 C 13,3 C 13,3 C 92 % 1021,0 hPa 0,0 l/m 0 min 0 min 0 W/m 6,8 km/h (2 Bft) 95,74 %
25.06.2018 01:34 14,1 C 13,3 C 13,3 C 92 % 1020,9 hPa 0,0 l/m 0 min 0 min 0 W/m 2,3 km/h (1 Bft) 97,87 %
25.06.2018 01:36 14,1 C 13,3 C 13,3 C 92 % 1020,9 hPa 0,0 l/m 0 min 0 min 0 W/m 4,5 km/h (1 Bft) 97,83 %
25.06.2018 01:38 14,1 C 13,3 C 13,3 C 92 % 1020,9 hPa 0,0 l/m 0 min 0 min 0 W/m 4,5 km/h (1 Bft) 97,87 %
25.06.2018 01:40 14,0 C 13,3 C 13,3 C 92 % 1020,9 hPa 0,0 l/m 0 min 0 min 0 W/m 0,0 km/h (0 Bft) 100,00 %
25.06.2018 01:42 14,0 C 13,3 C 13,3 C 92 % 1020,8 hPa 0,0 l/m 0 min 0 min 0 W/m 6,8 km/h (2 Bft) 97,87 %
25.06.2018 01:44 14,1 C 13,3 C 13,3 C 92 % 1020,9 hPa 0,0 l/m 0 min 0 min 0 W/m 6,8 km/h (2 Bft) 95,74 %
25.06.2018 01:46 14,0 C 13,3 C 13,3 C 92 % 1020,9 hPa 0,0 l/m 0 min 0 min 0 W/m 4,5 km/h (1 Bft) 97,87 %
25.06.2018 01:48 14,0 C 13,3 C 13,3 C 92 % 1020,9 hPa 0,0 l/m 0 min 0 min 0 W/m 0,0 km/h (0 Bft) 97,83 %
25.06.2018 01:50 14,0 C 13,3 C 13,3 C 92 % 1020,9 hPa 0,0 l/m 0 min 0 min 0 W/m 6,8 km/h (2 Bft) 97,87 %
25.06.2018 01:52 14,0 C 13,3 C 13,3 C 92 % 1020,8 hPa 0,0 l/m 0 min 0 min 0 W/m 4,5 km/h (1 Bft) 97,92 %
25.06.2018 01:54 14,0 C 13,3 C 13,3 C 92 % 1020,8 hPa 0,0 l/m 0 min 0 min 0 W/m 0,0 km/h (0 Bft) 97,87 %
25.06.2018 01:56 14,0 C 13,3 C 13,3 C 92 % 1020,8 hPa 0,0 l/m 0 min 0 min 0 W/m 4,5 km/h (1 Bft) 97,87 %
25.06.2018 01:58 14,0 C 13,3 C 13,3 C 92 % 1020,7 hPa 0,0 l/m 0 min 0 min 0 W/m 2,3 km/h (1 Bft) 95,65 %
25.06.2018 02:00 14,0 C 13,3 C 13,3 C 92 % 1020,7 hPa 0,0 l/m 0 min 0 min 0 W/m 4,5 km/h (1 Bft) 97,87 %
25.06.2018 02:02 14,0 C 13,3 C 13,3 C 92 % 1020,7 hPa 0,0 l/m 0 min 0 min 0 W/m 0,0 km/h (0 Bft) 95,74 %
25.06.2018 02:04 14,0 C 13,3 C 13,3 C 92 % 1020,7 hPa 0,0 l/m 0 min 0 min 0 W/m 2,3 km/h (1 Bft) 97,87 %
25.06.2018 02:06 14,0 C 13,3 C 13,3 C 92 % 1020,7 hPa 0,0 l/m 0 min 0 min 0 W/m 2,3 km/h (1 Bft) 97,87 %
25.06.2018 02:08 14,0 C 13,3 C 13,3 C 92 % 1020,7 hPa 0,0 l/m 0 min 0 min 0 W/m 2,3 km/h (1 Bft) 95,74 %
25.06.2018 02:10 14,0 C 13,3 C 13,3 C 92 % 1020,7 hPa 0,0 l/m 0 min 0 min 0 W/m 2,3 km/h (1 Bft) 97,83 %
25.06.2018 02:12 14,0 C 13,3 C 13,3 C 92 % 1020,8 hPa 0,0 l/m 0 min 0 min 0 W/m 2,3 km/h (1 Bft) 97,87 %
25.06.2018 02:14 14,0 C 13,3 C 13,3 C 92 % 1020,9 hPa 0,0 l/m 0 min 0 min 0 W/m 2,3 km/h (1 Bft) 95,74 %
25.06.2018 02:16 14,0 C 13,3 C 13,3 C 92 % 1020,8 hPa 0,0 l/m 0 min 0 min 0 W/m 0,0 km/h (0 Bft) 100,00 %
25.06.2018 02:18 14,0 C 13,3 C 13,3 C 92 % 1020,8 hPa 0,0 l/m 0 min 0 min 0 W/m 6,8 km/h (2 Bft) 97,87 %
25.06.2018 02:20 14,0 C 13,3 C 13,3 C 92 % 1020,8 hPa 0,0 l/m 0 min 0 min 0 W/m 9,0 km/h (2 Bft) 97,87 %
25.06.2018 02:22 14,0 C 13,3 C 13,3 C 92 % 1020,8 hPa 0,0 l/m 0 min 0 min 0 W/m 6,8 km/h (2 Bft) 97,83 %
25.06.2018 02:24 14,0 C 13,3 C 13,3 C 92 % 1020,8 hPa 0,0 l/m 0 min 0 min 0 W/m 4,5 km/h (1 Bft) 97,87 %
25.06.2018 02:26 14,0 C 13,3 C 13,3 C 92 % 1020,8 hPa 0,0 l/m 0 min 0 min 0 W/m 0,0 km/h (0 Bft) 93,62 %
25.06.2018 02:28 14,0 C 13,3 C 13,3 C 92 % 1020,8 hPa 0,0 l/m 0 min 0 min 0 W/m 4,5 km/h (1 Bft) 97,87 %
25.06.2018 02:30 14,0 C 13,3 C 13,3 C 92 % 1020,9 hPa 0,0 l/m 0 min 0 min 0 W/m 9,0 km/h (2 Bft) 97,87 %
25.06.2018 02:32 14,0 C 13,3 C 13,3 C 92 % 1020,9 hPa 0,0 l/m 0 min 0 min 0 W/m 6,8 km/h (2 Bft) 97,87 %
25.06.2018 02:34 14,0 C 13,3 C 13,3 C 92 % 1020,8 hPa 0,0 l/m 0 min 0 min 0 W/m 6,8 km/h (2 Bft) 97,83 %
25.06.2018 02:36 14,0 C 13,3 C 13,3 C 92 % 1020,9 hPa 0,0 l/m 0 min 0 min 0 W/m 6,8 km/h (2 Bft) 93,62 %
25.06.2018 02:38 14,0 C 13,3 C 13,3 C 92 % 1020,9 hPa 0,0 l/m 0 min 0 min 0 W/m 6,8 km/h (2 Bft) 97,87 %
25.06.2018 02:40 14,0 C 13,3 C 13,3 C 92 % 1020,8 hPa 0,0 l/m 0 min 0 min 0 W/m 2,3 km/h (1 Bft) 97,87 %
25.06.2018 02:42 14,0 C 13,3 C 13,3 C 92 % 1020,9 hPa 0,0 l/m 0 min 0 min 0 W/m 4,5 km/h (1 Bft) 95,74 %
25.06.2018 02:44 14,0 C 13,3 C 13,3 C 92 % 1020,8 hPa 0,0 l/m 0 min 0 min 0 W/m 4,5 km/h (1 Bft) 97,83 %
25.06.2018 02:46 14,0 C 13,3 C 13,3 C 92 % 1020,9 hPa 0,0 l/m 0 min 0 min 0 W/m 4,5 km/h (1 Bft) 97,87 %
25.06.2018 02:48 14,0 C 13,3 C 13,3 C 92 % 1020,9 hPa 0,0 l/m 0 min 0 min 0 W/m 6,8 km/h (2 Bft) 97,87 %
25.06.2018 02:50 14,0 C 13,3 C 13,3 C 92 % 1020,8 hPa 0,0 l/m 0 min 0 min 0 W/m 0,0 km/h (0 Bft) 97,87 %
25.06.2018 02:52 14,0 C 13,3 C 13,3 C 92 % 1020,8 hPa 0,0 l/m 0 min 0 min 0 W/m 0,0 km/h (0 Bft) 97,87 %
25.06.2018 02:54 14,0 C 13,3 C 13,3 C 92 % 1020,8 hPa 0,0 l/m 0 min 0 min 0 W/m 4,5 km/h (1 Bft) 97,87 %
25.06.2018 02:56 14,0 C 13,3 C 13,3 C 93 % 1020,7 hPa 0,0 l/m 0 min 0 min 0 W/m 4,5 km/h (1 Bft) 97,87 %
25.06.2018 02:58 14,0 C 13,3 C 13,3 C 93 % 1020,8 hPa 0,0 l/m 0 min 0 min 0 W/m 4,5 km/h (1 Bft) 97,83 %
25.06.2018 03:00 14,0 C 13,3 C 13,3 C 93 % 1020,7 hPa 0,0 l/m 0 min 0 min 0 W/m 6,8 km/h (2 Bft) 97,87 %
25.06.2018 03:02 14,0 C 13,3 C 13,3 C 93 % 1020,8 hPa 0,0 l/m 0 min 0 min 0 W/m 6,8 km/h (2 Bft) 95,24 %
25.06.2018 03:04 14,0 C 13,3 C 13,3 C 93 % 1020,8 hPa 0,0 l/m 0 min 0 min 0 W/m 6,8 km/h (2 Bft) 97,83 %
25.06.2018 03:06 14,0 C 13,3 C 13,3 C 93 % 1020,8 hPa 0,0 l/m 0 min 0 min 0 W/m 11,3 km/h (2 Bft) 96,30 %
25.06.2018 03:08 14,0 C 13,3 C 13,3 C 93 % 1020,8 hPa 0,0 l/m 0 min 0 min 0 W/m 9,0 km/h (2 Bft) 95,65 %
25.06.2018 03:10 14,0 C 13,3 C 13,3 C 93 % 1020,8 hPa 0,0 l/m 0 min 0 min 0 W/m 6,8 km/h (2 Bft) 97,87 %
25.06.2018 03:12 14,0 C 13,3 C 13,3 C 93 % 1020,9 hPa 0,0 l/m 0 min 0 min 0 W/m 6,8 km/h (2 Bft) 97,87 %
25.06.2018 03:14 14,0 C 13,3 C 13,3 C 93 % 1020,8 hPa 0,0 l/m 0 min 0 min 0 W/m 15,8 km/h (3 Bft) 95,74 %
25.06.2018 03:16 14,0 C 13,3 C 13,3 C 93 % 1020,9 hPa 0,0 l/m 0 min 0 min 0 W/m 13,5 km/h (3 Bft) 95,12 %
25.06.2018 03:18 14,0 C 13,3 C 13,3 C 93 % 1020,9 hPa 0,0 l/m 0 min 0 min 0 W/m 11,3 km/h (2 Bft) 95,74 %
25.06.2018 03:20 14,0 C 13,3 C 13,3 C 93 % 1020,9 hPa 0,0 l/m 0 min 0 min 0 W/m 6,8 km/h (2 Bft) 97,87 %
25.06.2018 03:22 14,0 C 13,3 C 13,3 C 93 % 1020,9 hPa 0,0 l/m 0 min 0 min 0 W/m 6,8 km/h (2 Bft) 95,74 %
25.06.2018 03:24 14,0 C 13,3 C 13,3 C 93 % 1020,9 hPa 0,0 l/m 0 min 0 min 0 W/m 4,5 km/h (1 Bft) 95,74 %
25.06.2018 03:26 14,0 C 13,3 C 13,3 C 93 % 1020,9 hPa 0,0 l/m 0 min 0 min 0 W/m 2,3 km/h (1 Bft) 95,65 %
25.06.2018 03:28 14,0 C 13,3 C 13,3 C 93 % 1020,9 hPa 0,0 l/m 0 min 0 min 0 W/m 9,0 km/h (2 Bft) 97,87 %
25.06.2018 03:30 14,0 C 13,3 C 13,3 C 93 % 1020,8 hPa 0,0 l/m 0 min 0 min 0 W/m 11,3 km/h (2 Bft) 97,87 %
25.06.2018 03:32 14,0 C 13,3 C 13,3 C 93 % 1020,8 hPa 0,0 l/m 0 min 0 min 0 W/m 18,0 km/h (3 Bft) 95,83 %
25.06.2018 03:34 14,0 C 13,3 C 13,3 C 93 % 1020,7 hPa 0,0 l/m 0 min 0 min 0 W/m 9,0 km/h (2 Bft) 97,87 %
25.06.2018 03:36 14,0 C 13,3 C 13,3 C 93 % 1020,8 hPa 0,0 l/m 0 min 0 min 0 W/m 4,5 km/h (1 Bft) 95,74 %
25.06.2018 03:38 14,0 C 13,3 C 13,3 C 93 % 1020,8 hPa 0,0 l/m 0 min 0 min 0 W/m 9,0 km/h (2 Bft) 97,83 %
25.06.2018 03:40 14,0 C 13,3 C 13,3 C 93 % 1020,8 hPa 0,0 l/m 0 min 0 min 0 W/m 4,5 km/h (1 Bft) 95,74 %
25.06.2018 03:42 14,0 C 13,3 C 13,3 C 93 % 1020,7 hPa 0,0 l/m 0 min 0 min 0 W/m 6,8 km/h (2 Bft) 97,87 %
25.06.2018 03:44 14,0 C 13,3 C 13,3 C 93 % 1020,7 hPa 0,0 l/m 0 min 0 min 0 W/m 13,5 km/h (3 Bft) 97,87 %
25.06.2018 03:46 14,0 C 13,3 C 13,3 C 93 % 1020,6 hPa 0,0 l/m 0 min 0 min 0 W/m 11,3 km/h (2 Bft) 96,08 %
25.06.2018 03:48 14,0 C 13,3 C 13,3 C 93 % 1020,7 hPa 0,0 l/m 0 min 0 min 0 W/m 4,5 km/h (1 Bft) 97,83 %
25.06.2018 03:50 14,0 C 13,3 C 13,3 C 93 % 1020,6 hPa 0,0 l/m 0 min 0 min 0 W/m 6,8 km/h (2 Bft) 95,74 %
25.06.2018 03:52 14,0 C 13,3 C 13,3 C 93 % 1020,7 hPa 0,0 l/m 0 min 0 min 0 W/m 6,8 km/h (2 Bft) 95,74 %
25.06.2018 03:54 14,0 C 13,3 C 13,3 C 93 % 1020,7 hPa 0,0 l/m 0 min 0 min 0 W/m 6,8 km/h (2 Bft) 97,87 %
25.06.2018 03:56 14,0 C 13,3 C 13,3 C 93 % 1020,8 hPa 0,0 l/m 0 min 0 min 0 W/m 2,3 km/h (1 Bft) 97,87 %
25.06.2018 03:58 14,0 C 13,3 C 13,3 C 93 % 1020,7 hPa 0,0 l/m 0 min 0 min 0 W/m 4,5 km/h (1 Bft) 97,87 %
25.06.2018 04:00 14,0 C 13,3 C 13,3 C 93 % 1020,8 hPa 0,0 l/m 0 min 0 min 0 W/m 6,8 km/h (2 Bft) 97,87 %
25.06.2018 04:02 14,0 C 13,3 C 13,3 C 93 % 1020,7 hPa 0,0 l/m 0 min 0 min 0 W/m 6,8 km/h (2 Bft) 100,00 %
25.06.2018 04:04 14,0 C 13,3 C 13,3 C 93 % 1020,8 hPa 0,0 l/m 0 min 0 min 0 W/m 4,5 km/h (1 Bft) 97,87 %
25.06.2018 04:06 14,0 C 13,3 C 13,3 C 93 % 1020,8 hPa 0,0 l/m 0 min 0 min 0 W/m 6,8 km/h (2 Bft) 97,87 %
25.06.2018 04:08 14,0 C 13,3 C 13,3 C 93 % 1020,8 hPa 0,0 l/m 0 min 0 min 0 W/m 4,5 km/h (1 Bft) 97,87 %
25.06.2018 04:10 14,0 C 13,3 C 13,3 C 93 % 1020,8 hPa 0,0 l/m 0 min 0 min 0 W/m 2,3 km/h (1 Bft) 100,00 %
25.06.2018 04:12 14,0 C 13,3 C 13,3 C 93 % 1020,8 hPa 0,0 l/m 0 min 0 min 0 W/m 2,3 km/h (1 Bft) 100,00 %
25.06.2018 04:14 14,0 C 13,3 C 13,3 C 93 % 1020,8 hPa 0,0 l/m 0 min 0 min 0 W/m 6,8 km/h (2 Bft) 100,00 %
25.06.2018 04:16 14,0 C 13,3 C 13,3 C 93 % 1020,8 hPa 0,0 l/m 0 min 0 min 0 W/m 2,3 km/h (1 Bft) 100,00 %
25.06.2018 04:18 14,0 C 13,3 C 13,3 C 93 % 1020,8 hPa 0,0 l/m 0 min 0 min 0 W/m 4,5 km/h (1 Bft) 100,00 %
25.06.2018 04:20 14,0 C 13,3 C 13,3 C 93 % 1020,8 hPa 0,0 l/m 0 min 0 min 0 W/m 2,3 km/h (1 Bft) 95,74 %
25.06.2018 04:22 14,0 C 13,3 C 13,3 C 93 % 1020,7 hPa 0,0 l/m 0 min 0 min 0 W/m 2,3 km/h (1 Bft) 97,87 %
25.06.2018 04:24 14,0 C 13,3 C 13,3 C 93 % 1020,8 hPa 0,0 l/m 0 min 0 min 0 W/m 4,5 km/h (1 Bft) 97,83 %
25.06.2018 04:26 14,0 C 13,3 C 13,3 C 93 % 1020,9 hPa 0,0 l/m 0 min 0 min 0 W/m 9,0 km/h (2 Bft) 95,74 %
25.06.2018 04:28 14,0 C 13,3 C 13,3 C 93 % 1020,8 hPa 0,0 l/m 0 min 0 min 0 W/m 9,0 km/h (2 Bft) 97,87 %
25.06.2018 04:30 14,0 C 13,3 C 13,3 C 93 % 1020,7 hPa 0,0 l/m 0 min 0 min 0 W/m 2,3 km/h (1 Bft) 97,87 %
25.06.2018 04:32 14,0 C 13,3 C 13,3 C 93 % 1020,8 hPa 0,0 l/m 0 min 0 min 0 W/m 4,5 km/h (1 Bft) 95,74 %
25.06.2018 04:34 14,0 C 13,3 C 13,3 C 93 % 1020,8 hPa 0,0 l/m 0 min 0 min 0 W/m 6,8 km/h (2 Bft) 97,87 %
25.06.2018 04:36 14,0 C 13,3 C 13,3 C 93 % 1020,8 hPa 0,0 l/m 0 min 0 min 0 W/m 4,5 km/h (1 Bft) 97,83 %
25.06.2018 04:38 14,0 C 13,3 C 13,3 C 93 % 1020,8 hPa 0,0 l/m 0 min 0 min 0 W/m 4,5 km/h (1 Bft) 95,74 %
25.06.2018 04:40 14,0 C 13,3 C 13,3 C 93 % 1020,8 hPa 0,0 l/m 0 min 0 min 0 W/m 6,8 km/h (2 Bft) 97,87 %
25.06.2018 04:42 14,0 C 13,3 C 13,3 C 93 % 1020,8 hPa 0,0 l/m 0 min 0 min 0 W/m 9,0 km/h (2 Bft) 97,87 %
25.06.2018 04:44 14,0 C 13,3 C 12,8 C 93 % 1020,8 hPa 0,0 l/m 0 min 0 min 0 W/m 6,8 km/h (2 Bft) 97,87 %
25.06.2018 04:46 14,0 C 13,3 C 12,8 C 93 % 1020,8 hPa 0,0 l/m 0 min 0 min 0 W/m 9,0 km/h (2 Bft) 97,87 %
25.06.2018 04:48 14,0 C 13,3 C 12,8 C 93 % 1020,9 hPa 0,0 l/m 0 min 0 min 0 W/m 9,0 km/h (2 Bft) 97,83 %
25.06.2018 04:50 14,0 C 13,3 C 12,8 C 93 % 1020,9 hPa 0,0 l/m 0 min 0 min 0 W/m 4,5 km/h (1 Bft) 97,87 %
25.06.2018 04:52 14,0 C 13,3 C 12,8 C 93 % 1020,9 hPa 0,0 l/m 0 min 0 min 0 W/m 2,3 km/h (1 Bft) 97,87 %
25.06.2018 04:54 14,0 C 13,3 C 12,8 C 93 % 1020,9 hPa 0,0 l/m 0 min 0 min 0 W/m 15,8 km/h (3 Bft) 95,74 %
25.06.2018 04:56 13,9 C 13,3 C 12,8 C 93 % 1020,9 hPa 0,0 l/m 0 min 0 min 0 W/m 13,5 km/h (3 Bft) 97,87 %
25.06.2018 04:58 13,9 C 13,3 C 12,8 C 94 % 1020,8 hPa 0,0 l/m 0 min 0 min 0 W/m 6,8 km/h (2 Bft) 97,87 %
25.06.2018 05:00 13,9 C 13,3 C 12,8 C 94 % 1020,8 hPa 0,0 l/m 0 min 0 min 0 W/m 11,3 km/h (2 Bft) 97,83 %
25.06.2018 05:02 13,9 C 13,3 C 12,8 C 94 % 1020,9 hPa 0,0 l/m 0 min 0 min 0 W/m 2,3 km/h (1 Bft) 97,87 %
25.06.2018 05:04 13,9 C 13,3 C 12,8 C 94 % 1020,9 hPa 0,0 l/m 0 min 0 min 0 W/m 9,0 km/h (2 Bft) 97,87 %
25.06.2018 05:08 13,9 C 13,3 C 12,8 C 94 % 1020,9 hPa 0,0 l/m 0 min 0 min 0 W/m 9,0 km/h (2 Bft) 97,87 %
25.06.2018 05:10 13,9 C 13,3 C 12,8 C 94 % 1020,9 hPa 0,0 l/m 0 min 0 min 0 W/m 4,5 km/h (1 Bft) 100,00 %
25.06.2018 05:12 13,9 C 13,3 C 12,8 C 94 % 1020,9 hPa 0,0 l/m 0 min 0 min 0 W/m 9,0 km/h (2 Bft) 100,00 %
25.06.2018 05:14 13,8 C 13,3 C 12,8 C 94 % 1020,9 hPa 0,0 l/m 0 min 0 min 0 W/m 9,0 km/h (2 Bft) 100,00 %
25.06.2018 05:16 13,8 C 13,3 C 12,8 C 94 % 1020,9 hPa 0,0 l/m 0 min 0 min 0 W/m 6,8 km/h (2 Bft) 97,87 %
25.06.2018 05:18 13,8 C 13,3 C 12,8 C 94 % 1021,0 hPa 0,0 l/m 0 min 0 min 0 W/m 13,5 km/h (3 Bft) 100,00 %
25.06.2018 05:20 13,8 C 13,3 C 12,8 C 94 % 1020,9 hPa 0,0 l/m 0 min 0 min 0 W/m 11,3 km/h (2 Bft) 100,00 %
25.06.2018 05:22 13,8 C 13,3 C 12,8 C 94 % 1020,9 hPa 0,0 l/m 0 min 0 min 0 W/m 6,8 km/h (2 Bft) 100,00 %
25.06.2018 05:24 13,8 C 13,3 C 12,8 C 94 % 1021,0 hPa 0,0 l/m 0 min 0 min 0 W/m 6,8 km/h (2 Bft) 100,00 %
25.06.2018 05:26 13,7 C 13,3 C 12,8 C 94 % 1021,0 hPa 0,0 l/m 0 min 0 min 0 W/m 4,5 km/h (1 Bft) 95,74 %
25.06.2018 05:28 13,7 C 13,3 C 12,8 C 94 % 1021,0 hPa 0,0 l/m 0 min 0 min 0 W/m 6,8 km/h (2 Bft) 100,00 %
25.06.2018 05:30 13,7 C 13,3 C 12,8 C 94 % 1021,1 hPa 0,0 l/m 0 min 0 min 0 W/m 11,3 km/h (2 Bft) 100,00 %
25.06.2018 05:32 13,7 C 13,3 C 12,8 C 94 % 1021,1 hPa 0,0 l/m 0 min 0 min 1 W/m 9,0 km/h (2 Bft) 100,00 %
25.06.2018 05:34 13,7 C 13,3 C 12,8 C 94 % 1021,1 hPa 0,0 l/m 0 min 0 min 5 W/m 6,8 km/h (2 Bft) 97,83 %
25.06.2018 05:35 13,7 C 13,3 C 12,8 C 94 % 1021,1 hPa 0,0 l/m 0 min 0 min 3 W/m 11,3 km/h (2 Bft) 100,00 %
25.06.2018 05:43 13,7 C 13,3 C 12,8 C 94 % 1021,0 hPa 0,0 l/m 0 min 0 min 3 W/m 9,0 km/h (2 Bft) 100,00 %
25.06.2018 05:44 13,7 C 13,3 C 12,8 C 94 % 1021,0 hPa 0,0 l/m 0 min 0 min 5 W/m 6,8 km/h (2 Bft) 100,00 %
25.06.2018 05:46 13,7 C 13,3 C 12,8 C 94 % 1021,0 hPa 0,0 l/m 0 min 0 min 5 W/m 6,8 km/h (2 Bft) 97,87 %
25.06.2018 05:48 13,7 C 13,3 C 12,8 C 94 % 1021,1 hPa 0,0 l/m 0 min 0 min 5 W/m 6,8 km/h (2 Bft) 100,00 %
25.06.2018 05:50 13,7 C 13,3 C 12,8 C 94 % 1021,0 hPa 0,0 l/m 0 min 0 min 5 W/m 9,0 km/h (2 Bft) 100,00 %
25.06.2018 05:52 13,7 C 13,3 C 12,8 C 94 % 1021,1 hPa 0,0 l/m 0 min 0 min 6 W/m 11,3 km/h (2 Bft) 100,00 %
25.06.2018 05:54 13,7 C 13,3 C 12,8 C 94 % 1021,2 hPa 0,0 l/m 0 min 0 min 7 W/m 4,5 km/h (1 Bft) 100,00 %
25.06.2018 05:56 13,7 C 13,3 C 12,8 C 94 % 1021,2 hPa 0,0 l/m 0 min 0 min 7 W/m 4,5 km/h (1 Bft) 100,00 %
25.06.2018 05:58 13,7 C 13,3 C 12,8 C 94 % 1021,1 hPa 0,0 l/m 0 min 0 min 7 W/m 6,8 km/h (2 Bft) 100,00 %
25.06.2018 06:00 13,7 C 13,3 C 12,8 C 94 % 1021,2 hPa 0,0 l/m 0 min 0 min 7 W/m 11,3 km/h (2 Bft) 97,83 %
25.06.2018 06:02 13,7 C 13,3 C 12,8 C 94 % 1021,2 hPa 0,0 l/m 0 min 0 min 7 W/m 9,0 km/h (2 Bft) 97,87 %
25.06.2018 06:04 13,7 C 13,3 C 12,8 C 94 % 1021,2 hPa 0,0 l/m 0 min 0 min 7 W/m 9,0 km/h (2 Bft) 97,87 %
25.06.2018 06:08 13,7 C 12,8 C 12,8 C 94 % 1021,2 hPa 0,0 l/m 0 min 0 min 7 W/m 9,0 km/h (2 Bft) 98,97 %
25.06.2018 06:10 13,7 C 12,8 C 12,8 C 94 % 1021,2 hPa 0,0 l/m 0 min 0 min 7 W/m 4,5 km/h (1 Bft) 95,65 %
25.06.2018 06:12 13,7 C 12,8 C 12,8 C 94 % 1021,3 hPa 0,0 l/m 0 min 0 min 7 W/m 6,8 km/h (2 Bft) 95,74 %
25.06.2018 06:14 13,7 C 12,8 C 12,8 C 94 % 1021,4 hPa 0,0 l/m 0 min 0 min 9 W/m 9,0 km/h (2 Bft) 97,87 %
25.06.2018 06:16 13,7 C 12,8 C 12,8 C 94 % 1021,4 hPa 0,0 l/m 0 min 0 min 9 W/m 9,0 km/h (2 Bft) 97,87 %
25.06.2018 06:18 13,7 C 12,8 C 12,8 C 94 % 1021,3 hPa 0,0 l/m 0 min 0 min 10 W/m 2,3 km/h (1 Bft) 95,74 %
25.06.2018 06:20 13,7 C 12,8 C 12,2 C 94 % 1021,4 hPa 0,0 l/m 0 min 0 min 13 W/m 9,0 km/h (2 Bft) 95,74 %
25.06.2018 06:22 13,7 C 12,8 C 12,2 C 94 % 1021,4 hPa 0,0 l/m 0 min 0 min 23 W/m 9,0 km/h (2 Bft) 93,48 %
25.06.2018 06:24 13,7 C 12,8 C 12,2 C 94 % 1021,4 hPa 0,0 l/m 0 min 0 min 34 W/m 6,8 km/h (2 Bft) 95,74 %
25.06.2018 06:26 13,7 C 12,8 C 12,2 C 95 % 1021,4 hPa 0,0 l/m 0 min 0 min 34 W/m 2,3 km/h (1 Bft) 95,74 %
25.06.2018 06:28 13,7 C 12,8 C 12,2 C 95 % 1021,4 hPa 0,0 l/m 0 min 0 min 29 W/m 4,5 km/h (1 Bft) 95,74 %
25.06.2018 06:30 13,7 C 12,8 C 12,2 C 95 % 1021,4 hPa 0,0 l/m 0 min 0 min 26 W/m 4,5 km/h (1 Bft) 95,74 %
25.06.2018 06:32 13,7 C 12,8 C 12,8 C 95 % 1021,4 hPa 0,0 l/m 0 min 0 min 23 W/m 4,5 km/h (1 Bft) 95,74 %
25.06.2018 06:34 13,7 C 12,8 C 12,8 C 95 % 1021,4 hPa 0,0 l/m 0 min 0 min 26 W/m 9,0 km/h (2 Bft) 95,65 %
25.06.2018 06:36 13,7 C 12,8 C 12,8 C 95 % 1021,5 hPa 0,0 l/m 0 min 0 min 28 W/m 4,5 km/h (1 Bft) 93,75 %
25.06.2018 06:38 13,7 C 12,8 C 12,8 C 95 % 1021,4 hPa 0,0 l/m 0 min 0 min 27 W/m 6,8 km/h (2 Bft) 95,74 %
25.06.2018 06:40 13,7 C 12,8 C 12,8 C 95 % 1021,5 hPa 0,0 l/m 0 min 0 min 31 W/m 4,5 km/h (1 Bft) 95,74 %
25.06.2018 06:42 13,7 C 12,8 C 12,8 C 95 % 1021,5 hPa 0,0 l/m 0 min 0 min 35 W/m 6,8 km/h (2 Bft) 95,74 %
25.06.2018 06:44 13,7 C 12,8 C 12,8 C 95 % 1021,5 hPa 0,0 l/m 0 min 0 min 34 W/m 4,5 km/h (1 Bft) 95,74 %
25.06.2018 06:46 13,7 C 12,8 C 12,8 C 95 % 1021,5 hPa 0,0 l/m 0 min 0 min 32 W/m 6,8 km/h (2 Bft) 95,65 %
25.06.2018 06:48 13,7 C 12,8 C 12,8 C 95 % 1021,5 hPa 0,0 l/m 0 min 0 min 34 W/m 2,3 km/h (1 Bft) 95,74 %
25.06.2018 06:50 13,7 C 12,8 C 12,8 C 95 % 1021,5 hPa 0,0 l/m 0 min 0 min 38 W/m 9,0 km/h (2 Bft) 95,74 %
25.06.2018 06:52 13,7 C 12,8 C 12,8 C 95 % 1021,5 hPa 0,0 l/m 0 min 0 min 35 W/m 6,8 km/h (2 Bft) 95,74 %
25.06.2018 06:54 13,7 C 12,8 C 12,8 C 95 % 1021,6 hPa 0,0 l/m 0 min 0 min 25 W/m 4,5 km/h (1 Bft) 93,62 %
25.06.2018 06:56 13,7 C 12,8 C 12,8 C 95 % 1021,6 hPa 0,0 l/m 0 min 0 min 23 W/m 9,0 km/h (2 Bft) 93,62 %
25.06.2018 06:58 13,7 C 12,8 C 12,8 C 95 % 1021,6 hPa 0,0 l/m 0 min 0 min 25 W/m 4,5 km/h (1 Bft) 95,65 %
25.06.2018 07:00 13,7 C 12,8 C 12,8 C 95 % 1021,6 hPa 0,0 l/m 0 min 0 min 28 W/m 6,8 km/h (2 Bft) 95,74 %
25.06.2018 07:02 13,7 C 12,8 C 12,8 C 95 % 1021,6 hPa 0,0 l/m 0 min 0 min 33 W/m 4,5 km/h (1 Bft) 91,49 %
25.06.2018 07:04 13,7 C 12,8 C 12,8 C 95 % 1021,6 hPa 0,0 l/m 0 min 0 min 35 W/m 6,8 km/h (2 Bft) 95,74 %
25.06.2018 07:06 13,7 C 12,8 C 12,8 C 95 % 1021,6 hPa 0,0 l/m 0 min 0 min 36 W/m 11,3 km/h (2 Bft) 95,83 %
25.06.2018 07:08 13,7 C 12,8 C 12,8 C 95 % 1021,6 hPa 0,0 l/m 0 min 0 min 41 W/m 0,0 km/h (0 Bft) 97,83 %
25.06.2018 07:10 13,7 C 12,8 C 12,8 C 95 % 1021,6 hPa 0,0 l/m 0 min 0 min 37 W/m 4,5 km/h (1 Bft) 97,87 %
25.06.2018 07:12 13,7 C 12,8 C 12,8 C 95 % 1021,6 hPa 0,0 l/m 0 min 0 min 32 W/m 9,0 km/h (2 Bft) 93,62 %
25.06.2018 07:14 13,7 C 12,8 C 12,8 C 95 % 1021,6 hPa 0,0 l/m 0 min 0 min 32 W/m 4,5 km/h (1 Bft) 95,74 %
25.06.2018 07:16 13,6 C 12,8 C 12,8 C 95 % 1021,7 hPa 0,0 l/m 0 min 0 min 37 W/m 6,8 km/h (2 Bft) 97,87 %
25.06.2018 07:18 13,7 C 12,8 C 12,8 C 95 % 1021,6 hPa 0,0 l/m 0 min 0 min 38 W/m 9,0 km/h (2 Bft) 97,87 %
25.06.2018 07:20 13,6 C 12,8 C 12,8 C 95 % 1021,6 hPa 0,0 l/m 0 min 0 min 30 W/m 6,8 km/h (2 Bft) 100,00 %
25.06.2018 07:22 13,6 C 12,8 C 12,8 C 95 % 1021,6 hPa 0,0 l/m 0 min 0 min 25 W/m 6,8 km/h (2 Bft) 97,83 %
25.06.2018 07:24 13,6 C 12,8 C 12,8 C 95 % 1021,6 hPa 0,0 l/m 0 min 0 min 23 W/m 9,0 km/h (2 Bft) 95,74 %
25.06.2018 07:26 13,6 C 12,8 C 12,8 C 95 % 1021,6 hPa 0,0 l/m 0 min 0 min 28 W/m 2,3 km/h (1 Bft) 95,74 %
25.06.2018 07:28 13,6 C 12,8 C 12,8 C 95 % 1021,6 hPa 0,0 l/m 0 min 0 min 26 W/m 4,5 km/h (1 Bft) 97,87 %
25.06.2018 07:30 13,6 C 12,8 C 12,8 C 95 % 1021,6 hPa 0,0 l/m 0 min 0 min 25 W/m 6,8 km/h (2 Bft) 95,74 %
25.06.2018 07:32 13,6 C 12,8 C 12,8 C 95 % 1021,6 hPa 0,0 l/m 0 min 0 min 42 W/m 4,5 km/h (1 Bft) 97,83 %
25.06.2018 07:34 13,6 C 12,8 C 12,8 C 95 % 1021,6 hPa 0,0 l/m 0 min 0 min 52 W/m 6,8 km/h (2 Bft) 95,74 %
25.06.2018 07:38 13,6 C 12,8 C 12,8 C 96 % 1021,7 hPa 0,0 l/m 0 min 0 min 59 W/m 6,8 km/h (2 Bft) 96,84 %
25.06.2018 07:40 13,6 C 13,3 C 12,8 C 96 % 1021,7 hPa 0,0 l/m 0 min 0 min 74 W/m 2,3 km/h (1 Bft) 97,87 %
25.06.2018 07:42 13,6 C 13,3 C 12,8 C 96 % 1021,7 hPa 0,0 l/m 0 min 0 min 52 W/m 4,5 km/h (1 Bft) 97,87 %
25.06.2018 07:44 13,6 C 13,3 C 12,8 C 96 % 1021,7 hPa 0,0 l/m 0 min 0 min 65 W/m 6,8 km/h (2 Bft) 93,48 %
25.06.2018 07:46 13,7 C 13,3 C 12,8 C 96 % 1021,7 hPa 0,0 l/m 0 min 0 min 52 W/m 9,0 km/h (2 Bft) 95,74 %
25.06.2018 07:48 13,7 C 13,3 C 12,8 C 96 % 1021,7 hPa 0,0 l/m 0 min 0 min 64 W/m 11,3 km/h (2 Bft) 97,87 %
25.06.2018 07:50 13,6 C 13,3 C 12,8 C 96 % 1021,7 hPa 0,0 l/m 0 min 0 min 96 W/m 11,3 km/h (2 Bft) 97,87 %
25.06.2018 07:52 13,7 C 13,3 C 12,8 C 96 % 1021,7 hPa 0,0 l/m 0 min 0 min 119 W/m 6,8 km/h (2 Bft) 97,87 %
25.06.2018 07:54 13,7 C 13,9 C 12,8 C 96 % 1021,7 hPa 0,0 l/m 0 min 0 min 124 W/m 9,0 km/h (2 Bft) 97,87 %
25.06.2018 07:56 13,7 C 13,9 C 12,8 C 96 % 1021,8 hPa 0,0 l/m 0 min 0 min 115 W/m 11,3 km/h (2 Bft) 97,83 %
25.06.2018 07:58 13,7 C 13,9 C 12,8 C 96 % 1021,8 hPa 0,0 l/m 0 min 0 min 112 W/m 9,0 km/h (2 Bft) 97,87 %
25.06.2018 08:00 13,7 C 13,9 C 12,8 C 96 % 1021,8 hPa 0,0 l/m 0 min 0 min 114 W/m 2,3 km/h (1 Bft) 100,00 %
25.06.2018 08:02 13,7 C 13,9 C 13,3 C 96 % 1021,8 hPa 0,0 l/m 0 min 0 min 116 W/m 9,0 km/h (2 Bft) 100,00 %
25.06.2018 08:04 13,7 C 14,4 C 13,3 C 96 % 1021,8 hPa 0,0 l/m 0 min 0 min 126 W/m 4,5 km/h (1 Bft) 100,00 %
25.06.2018 08:06 13,8 C 14,4 C 13,3 C 96 % 1021,9 hPa 0,0 l/m 0 min 0 min 125 W/m 4,5 km/h (1 Bft) 97,83 %
25.06.2018 08:08 13,8 C 14,4 C 13,3 C 96 % 1021,9 hPa 0,0 l/m 0 min 0 min 123 W/m 6,8 km/h (2 Bft) 100,00 %
25.06.2018 08:10 13,8 C 14,4 C 13,3 C 96 % 1021,9 hPa 0,0 l/m 0 min 0 min 113 W/m 2,3 km/h (1 Bft) 100,00 %
25.06.2018 08:12 13,8 C 14,4 C 13,3 C 96 % 1021,9 hPa 0,0 l/m 0 min 0 min 128 W/m 11,3 km/h (2 Bft) 100,00 %
25.06.2018 08:14 13,9 C 14,4 C 13,3 C 96 % 1021,9 hPa 0,0 l/m 0 min 0 min 129 W/m 4,5 km/h (1 Bft) 100,00 %
25.06.2018 08:16 13,9 C 14,4 C 13,3 C 96 % 1021,9 hPa 0,0 l/m 0 min 0 min 128 W/m 9,0 km/h (2 Bft) 97,87 %
25.06.2018 08:18 13,9 C 14,4 C 13,3 C 96 % 1021,9 hPa 0,0 l/m 0 min 0 min 140 W/m 9,0 km/h (2 Bft) 100,00 %
25.06.2018 08:20 13,9 C 14,4 C 13,3 C 96 % 1021,9 hPa 0,0 l/m 0 min 0 min 145 W/m 2,3 km/h (1 Bft) 100,00 %
25.06.2018 08:22 14,0 C 15,0 C 13,3 C 96 % 1021,9 hPa 0,0 l/m 0 min 0 min 161 W/m 4,5 km/h (1 Bft) 97,87 %
25.06.2018 08:24 14,0 C 15,0 C 13,3 C 96 % 1021,9 hPa 0,0 l/m 0 min 0 min 160 W/m 6,8 km/h (2 Bft) 100,00 %
25.06.2018 08:26 14,1 C 15,0 C 13,3 C 96 % 1021,9 hPa 0,0 l/m 0 min 0 min 142 W/m 9,0 km/h (2 Bft) 97,87 %
25.06.2018 08:28 14,1 C 15,0 C 13,9 C 96 % 1021,9 hPa 0,0 l/m 0 min 0 min 126 W/m 9,0 km/h (2 Bft) 97,87 %
25.06.2018 08:30 14,2 C 15,0 C 13,9 C 96 % 1021,9 hPa 0,0 l/m 0 min 0 min 114 W/m 9,0 km/h (2 Bft) 100,00 %
25.06.2018 08:32 14,2 C 14,4 C 13,9 C 96 % 1022,0 hPa 0,0 l/m 0 min 0 min 104 W/m 6,8 km/h (2 Bft) 100,00 %
25.06.2018 08:34 14,2 C 15,0 C 13,9 C 96 % 1022,0 hPa 0,0 l/m 0 min 0 min 112 W/m 6,8 km/h (2 Bft) 100,00 %
25.06.2018 08:38 14,2 C 14,4 C 13,9 C 96 % 1022,0 hPa 0,0 l/m 0 min 0 min 96 W/m 11,3 km/h (2 Bft) 100,00 %
25.06.2018 08:40 14,2 C 14,4 C 13,9 C 96 % 1022,1 hPa 0,0 l/m 0 min 0 min 91 W/m 15,8 km/h (3 Bft) 100,00 %
25.06.2018 08:42 14,2 C 14,4 C 13,3 C 96 % 1022,2 hPa 0,0 l/m 0 min 0 min 82 W/m 11,3 km/h (2 Bft) 100,00 %
25.06.2018 08:44 14,2 C 14,4 C 13,3 C 96 % 1022,2 hPa 0,0 l/m 0 min 0 min 78 W/m 11,3 km/h (2 Bft) 100,00 %
25.06.2018 08:46 14,2 C 14,4 C 13,3 C 96 % 1022,2 hPa 0,0 l/m 0 min 0 min 77 W/m 6,8 km/h (2 Bft) 100,00 %
25.06.2018 08:48 14,2 C 14,4 C 13,3 C 96 % 1022,2 hPa 0,0 l/m 0 min 0 min 86 W/m 11,3 km/h (2 Bft) 97,87 %
25.06.2018 08:50 14,2 C 14,4 C 13,3 C 96 % 1022,2 hPa 0,0 l/m 0 min 0 min 98 W/m 4,5 km/h (1 Bft) 100,00 %
25.06.2018 08:52 14,2 C 14,4 C 13,9 C 96 % 1022,2 hPa 0,0 l/m 0 min 0 min 95 W/m 6,8 km/h (2 Bft) 100,00 %
25.06.2018 08:54 14,2 C 14,4 C 13,9 C 96 % 1022,2 hPa 0,0 l/m 0 min 0 min 92 W/m 15,8 km/h (3 Bft) 100,00 %
25.06.2018 08:56 14,2 C 14,4 C 13,9 C 96 % 1022,3 hPa 0,0 l/m 0 min 0 min 92 W/m 9,0 km/h (2 Bft) 97,87 %
25.06.2018 08:58 14,2 C 14,4 C 13,9 C 96 % 1022,3 hPa 0,0 l/m 0 min 0 min 97 W/m 11,3 km/h (2 Bft) 100,00 %
25.06.2018 09:00 14,2 C 14,4 C 13,9 C 95 % 1022,3 hPa 0,0 l/m 0 min 0 min 96 W/m 6,8 km/h (2 Bft) 97,87 %
25.06.2018 09:02 14,2 C 15,0 C 13,9 C 95 % 1022,3 hPa 0,0 l/m 0 min 0 min 96 W/m 6,8 km/h (2 Bft) 97,87 %
25.06.2018 09:04 14,2 C 15,0 C 13,9 C 95 % 1022,3 hPa 0,0 l/m 0 min 0 min 97 W/m 9,0 km/h (2 Bft) 100,00 %
25.06.2018 09:06 14,3 C 15,0 C 13,9 C 95 % 1022,2 hPa 0,0 l/m 0 min 0 min 97 W/m 4,5 km/h (1 Bft) 97,87 %
25.06.2018 09:08 14,3 C 15,0 C 13,9 C 95 % 1022,3 hPa 0,0 l/m 0 min 0 min 103 W/m 6,8 km/h (2 Bft) 100,00 %
25.06.2018 09:10 14,3 C 15,0 C 13,9 C 95 % 1022,4 hPa 0,0 l/m 0 min 0 min 112 W/m 11,3 km/h (2 Bft) 100,00 %
25.06.2018 09:12 14,3 C 15,0 C 13,9 C 95 % 1022,3 hPa 0,0 l/m 0 min 0 min 119 W/m 15,8 km/h (3 Bft) 100,00 %
25.06.2018 09:14 14,4 C 15,0 C 13,9 C 95 % 1022,4 hPa 0,0 l/m 0 min 0 min 123 W/m 9,0 km/h (2 Bft) 100,00 %
25.06.2018 09:16 14,4 C 15,0 C 13,9 C 95 % 1022,3 hPa 0,0 l/m 0 min 0 min 116 W/m 11,3 km/h (2 Bft) 97,83 %
25.06.2018 09:18 14,4 C 15,0 C 13,9 C 94 % 1022,4 hPa 0,0 l/m 0 min 0 min 104 W/m 9,0 km/h (2 Bft) 97,87 %
25.06.2018 09:20 14,4 C 15,0 C 13,9 C 94 % 1022,4 hPa 0,0 l/m 0 min 0 min 97 W/m 9,0 km/h (2 Bft) 95,74 %
25.06.2018 09:22 14,4 C 15,0 C 13,9 C 94 % 1022,4 hPa 0,0 l/m 0 min 0 min 102 W/m 6,8 km/h (2 Bft) 97,87 %
25.06.2018 09:24 14,4 C 15,0 C 13,9 C 94 % 1022,4 hPa 0,0 l/m 0 min 0 min 109 W/m 11,3 km/h (2 Bft) 95,74 %
25.06.2018 09:26 14,5 C 15,0 C 13,9 C 94 % 1022,3 hPa 0,0 l/m 0 min 0 min 116 W/m 15,8 km/h (3 Bft) 97,87 %
25.06.2018 09:28 14,5 C 15,0 C 13,9 C 94 % 1022,4 hPa 0,0 l/m 0 min 0 min 126 W/m 9,0 km/h (2 Bft) 97,83 %
25.06.2018 09:30 14,5 C 15,0 C 13,9 C 94 % 1022,4 hPa 0,0 l/m 0 min 0 min 155 W/m 4,5 km/h (1 Bft) 97,30 %
25.06.2018 09:32 14,6 C 15,6 C 13,9 C 94 % 1022,4 hPa 0,0 l/m 0 min 0 min 141 W/m 2,3 km/h (1 Bft) 97,87 %
25.06.2018 09:34 14,6 C 15,6 C 13,9 C 93 % 1022,4 hPa 0,0 l/m 0 min 0 min 151 W/m 4,5 km/h (1 Bft) 97,87 %
25.06.2018 09:36 14,6 C 15,6 C 14,4 C 93 % 1022,4 hPa 0,0 l/m 0 min 0 min 210 W/m 9,0 km/h (2 Bft) 97,87 %
25.06.2018 09:38 14,7 C 16,1 C 14,4 C 94 % 1022,4 hPa 0,0 l/m 0 min 0 min 253 W/m 11,3 km/h (2 Bft) 97,87 %
25.06.2018 09:40 14,7 C 16,1 C 14,4 C 93 % 1022,4 hPa 0,0 l/m 0 min 0 min 255 W/m 9,0 km/h (2 Bft) 97,87 %
25.06.2018 09:42 14,8 C 16,1 C 14,4 C 93 % 1022,4 hPa 0,0 l/m 0 min 0 min 199 W/m 11,3 km/h (2 Bft) 97,83 %
25.06.2018 09:44 14,9 C 16,1 C 14,4 C 93 % 1022,4 hPa 0,0 l/m 0 min 0 min 170 W/m 6,8 km/h (2 Bft) 100,00 %
25.06.2018 09:46 14,9 C 16,1 C 14,4 C 93 % 1022,4 hPa 0,0 l/m 0 min 0 min 161 W/m 6,8 km/h (2 Bft) 95,74 %
25.06.2018 09:48 14,9 C 16,1 C 14,4 C 93 % 1022,5 hPa 0,0 l/m 0 min 0 min 165 W/m 9,0 km/h (2 Bft) 95,74 %
25.06.2018 09:50 14,9 C 16,1 C 14,4 C 93 % 1022,5 hPa 0,0 l/m 0 min 0 min 178 W/m 13,5 km/h (3 Bft) 94,83 %
25.06.2018 09:52 15,0 C 16,1 C 14,4 C 93 % 1022,5 hPa 0,0 l/m 0 min 0 min 174 W/m 9,0 km/h (2 Bft) 93,62 %
25.06.2018 09:54 15,1 C 15,6 C 14,4 C 92 % 1022,5 hPa 0,0 l/m 0 min 0 min 168 W/m 9,0 km/h (2 Bft) 94,29 %
25.06.2018 09:56 15,1 C 15,6 C 14,4 C 92 % 1022,5 hPa 0,0 l/m 0 min 0 min 172 W/m 9,0 km/h (2 Bft) 93,62 %
25.06.2018 09:58 15,1 C 16,1 C 14,4 C 92 % 1022,5 hPa 0,0 l/m 0 min 0 min 162 W/m 9,0 km/h (2 Bft) 91,49 %
25.06.2018 10:00 15,1 C 16,1 C 14,4 C 92 % 1022,5 hPa 0,0 l/m 0 min 0 min 147 W/m 9,0 km/h (2 Bft) 93,62 %
25.06.2018 10:02 15,2 C 16,1 C 14,4 C 91 % 1022,6 hPa 0,0 l/m 0 min 0 min 146 W/m 6,8 km/h (2 Bft) 93,75 %
25.06.2018 10:04 15,2 C 16,1 C 14,4 C 91 % 1022,5 hPa 0,0 l/m 0 min 0 min 174 W/m 6,8 km/h (2 Bft) 93,48 %
25.06.2018 10:06 15,2 C 16,1 C 14,4 C 91 % 1022,5 hPa 0,0 l/m 0 min 0 min 171 W/m 9,0 km/h (2 Bft) 93,62 %
25.06.2018 10:08 15,2 C 16,1 C 14,4 C 91 % 1022,5 hPa 0,0 l/m 0 min 0 min 188 W/m 6,8 km/h (2 Bft) 89,36 %
25.06.2018 10:10 15,3 C 16,1 C 14,4 C 91 % 1022,6 hPa 0,0 l/m 0 min 0 min 197 W/m 11,3 km/h (2 Bft) 93,62 %
25.06.2018 10:12 15,3 C 16,1 C 14,4 C 91 % 1022,6 hPa 0,0 l/m 0 min 0 min 170 W/m 6,8 km/h (2 Bft) 95,74 %
25.06.2018 10:14 15,3 C 16,1 C 15,0 C 91 % 1022,5 hPa 0,0 l/m 0 min 0 min 174 W/m 6,8 km/h (2 Bft) 94,29 %
25.06.2018 10:16 15,4 C 16,7 C 15,0 C 90 % 1022,5 hPa 0,0 l/m 0 min 0 min 239 W/m 6,8 km/h (2 Bft) 96,61 %
25.06.2018 10:18 15,4 C 17,2 C 15,0 C 90 % 1022,6 hPa 0,0 l/m 0 min 0 min 307 W/m 6,8 km/h (2 Bft) 95,65 %
25.06.2018 10:20 15,5 C 17,2 C 15,0 C 91 % 1022,5 hPa 0,0 l/m 0 min 0 min 331 W/m 6,8 km/h (2 Bft) 95,74 %
25.06.2018 10:22 15,6 C 17,8 C 15,0 C 90 % 1022,6 hPa 0,0 l/m 0 min 0 min 346 W/m 11,3 km/h (2 Bft) 97,87 %
25.06.2018 10:24 15,6 C 17,8 C 15,0 C 90 % 1022,6 hPa 0,0 l/m 0 min 0 min 333 W/m 9,0 km/h (2 Bft) 97,87 %
25.06.2018 10:26 15,7 C 17,8 C 15,6 C 90 % 1022,7 hPa 0,0 l/m 0 min 0 min 296 W/m 9,0 km/h (2 Bft) 91,49 %
25.06.2018 10:28 15,8 C 17,2 C 15,0 C 90 % 1022,6 hPa 0,0 l/m 0 min 0 min 253 W/m 11,3 km/h (2 Bft) 95,65 %
25.06.2018 10:30 15,8 C 17,2 C 15,0 C 89 % 1022,7 hPa 0,0 l/m 0 min 0 min 211 W/m 15,8 km/h (3 Bft) 95,74 %
25.06.2018 10:32 15,8 C 16,7 C 15,0 C 88 % 1022,7 hPa 0,0 l/m 0 min 0 min 160 W/m 11,3 km/h (2 Bft) 93,75 %
25.06.2018 10:34 15,9 C 16,7 C 15,0 C 88 % 1022,7 hPa 0,0 l/m 0 min 0 min 150 W/m 9,0 km/h (2 Bft) 97,87 %
25.06.2018 10:36 15,9 C 16,7 C 15,0 C 88 % 1022,7 hPa 0,0 l/m 0 min 0 min 164 W/m 11,3 km/h (2 Bft) 100,00 %
25.06.2018 10:38 15,9 C 16,7 C 15,0 C 87 % 1022,8 hPa 0,0 l/m 0 min 0 min 182 W/m 11,3 km/h (2 Bft) 97,87 %
25.06.2018 10:40 16,0 C 16,7 C 15,0 C 88 % 1022,7 hPa 0,0 l/m 0 min 0 min 257 W/m 6,8 km/h (2 Bft) 97,83 %
25.06.2018 10:42 16,0 C 16,7 C 15,0 C 88 % 1022,6 hPa 0,0 l/m 0 min 0 min 294 W/m 11,3 km/h (2 Bft) 100,00 %
25.06.2018 10:44 16,1 C 17,2 C 15,0 C 87 % 1022,7 hPa 0,0 l/m 0 min 0 min 264 W/m 6,8 km/h (2 Bft) 100,00 %
25.06.2018 10:46 16,1 C 17,2 C 15,6 C 87 % 1022,7 hPa 0,0 l/m 0 min 0 min 217 W/m 11,3 km/h (2 Bft) 100,00 %
25.06.2018 10:48 16,1 C 17,2 C 15,6 C 87 % 1022,7 hPa 0,0 l/m 0 min 0 min 201 W/m 9,0 km/h (2 Bft) 93,62 %
25.06.2018 10:50 16,2 C 17,2 C 15,6 C 87 % 1022,7 hPa 0,0 l/m 0 min 0 min 178 W/m 6,8 km/h (2 Bft) 100,00 %
25.06.2018 10:52 16,2 C 17,2 C 15,6 C 87 % 1022,7 hPa 0,0 l/m 0 min 0 min 176 W/m 6,8 km/h (2 Bft) 100,00 %
25.06.2018 10:54 16,2 C 17,2 C 15,6 C 87 % 1022,7 hPa 0,0 l/m 0 min 0 min 188 W/m 6,8 km/h (2 Bft) 97,87 %
25.06.2018 10:56 16,3 C 17,2 C 15,6 C 87 % 1022,8 hPa 0,0 l/m 0 min 0 min 181 W/m 4,5 km/h (1 Bft) 100,00 %
25.06.2018 10:58 16,3 C 17,2 C 15,6 C 87 % 1022,8 hPa 0,0 l/m 0 min 0 min 180 W/m 4,5 km/h (1 Bft) 100,00 %
25.06.2018 11:00 16,3 C 17,2 C 15,0 C 87 % 1022,8 hPa 0,0 l/m 0 min 0 min 199 W/m 9,0 km/h (2 Bft) 100,00 %
25.06.2018 11:02 16,3 C 17,2 C 15,6 C 87 % 1022,8 hPa 0,0 l/m 0 min 0 min 199 W/m 9,0 km/h (2 Bft) 100,00 %
25.06.2018 11:04 16,4 C 17,2 C 15,0 C 87 % 1022,8 hPa 0,0 l/m 0 min 0 min 190 W/m 9,0 km/h (2 Bft) 100,00 %
25.06.2018 11:08 16,4 C 17,2 C 15,0 C 87 % 1022,8 hPa 0,0 l/m 0 min 0 min 201 W/m 9,0 km/h (2 Bft) 100,00 %
25.06.2018 11:10 16,4 C 17,2 C 15,0 C 87 % 1022,8 hPa 0,0 l/m 0 min 0 min 204 W/m 9,0 km/h (2 Bft) 100,00 %
25.06.2018 11:12 16,4 C 17,2 C 15,0 C 87 % 1022,8 hPa 0,0 l/m 0 min 0 min 251 W/m 4,5 km/h (1 Bft) 97,87 %
25.06.2018 11:14 16,4 C 17,8 C 15,6 C 87 % 1022,7 hPa 0,0 l/m 0 min 0 min 325 W/m 4,5 km/h (1 Bft) 100,00 %
25.06.2018 11:16 16,5 C 18,3 C 15,6 C 87 % 1022,8 hPa 0,0 l/m 0 min 0 min 383 W/m 6,8 km/h (2 Bft) 100,00 %
25.06.2018 11:18 16,6 C 19,4 C 16,1 C 86 % 1022,7 hPa 0,0 l/m 2 min 0 min 416 W/m 6,8 km/h (2 Bft) 97,87 %
25.06.2018 11:20 16,6 C 20,0 C 16,1 C 87 % 1022,8 hPa 0,0 l/m 2 min 0 min 442 W/m 13,5 km/h (3 Bft) 100,00 %
25.06.2018 11:22 16,7 C 20,0 C 16,7 C 86 % 1022,7 hPa 0,0 l/m 2 min 0 min 540 W/m 18,0 km/h (3 Bft) 100,00 %
25.06.2018 11:24 16,8 C 22,2 C 16,7 C 86 % 1022,7 hPa 0,0 l/m 2 min 0 min 555 W/m 6,8 km/h (2 Bft) 100,00 %
25.06.2018 11:26 16,9 C 21,1 C 16,7 C 86 % 1022,8 hPa 0,0 l/m 2 min 0 min 468 W/m 15,8 km/h (3 Bft) 100,00 %
25.06.2018 11:28 16,9 C 20,6 C 16,7 C 85 % 1022,7 hPa 0,0 l/m 2 min 0 min 438 W/m 11,3 km/h (2 Bft) 100,00 %
25.06.2018 11:30 17,1 C 21,1 C 16,7 C 85 % 1022,8 hPa 0,0 l/m 2 min 0 min 437 W/m 11,3 km/h (2 Bft) 100,00 %
25.06.2018 11:32 17,2 C 20,0 C 16,7 C 84 % 1022,8 hPa 0,0 l/m 0 min 0 min 350 W/m 11,3 km/h (2 Bft) 100,00 %
25.06.2018 11:34 17,3 C 20,0 C 16,7 C 84 % 1022,8 hPa 0,0 l/m 0 min 0 min 294 W/m 11,3 km/h (2 Bft) 100,00 %
25.06.2018 11:36 17,3 C 18,9 C 16,1 C 83 % 1022,9 hPa 0,0 l/m 0 min 0 min 244 W/m 11,3 km/h (2 Bft) 95,74 %
25.06.2018 11:38 17,4 C 18,9 C 16,1 C 83 % 1022,9 hPa 0,0 l/m 0 min 0 min 262 W/m 11,3 km/h (2 Bft) 100,00 %
25.06.2018 11:40 17,4 C 18,9 C 16,1 C 82 % 1022,9 hPa 0,0 l/m 0 min 0 min 282 W/m 9,0 km/h (2 Bft) 100,00 %
25.06.2018 11:42 17,4 C 18,9 C 16,1 C 82 % 1022,9 hPa 0,0 l/m 0 min 0 min 284 W/m 6,8 km/h (2 Bft) 97,87 %
25.06.2018 11:44 17,5 C 19,4 C 16,1 C 82 % 1022,8 hPa 0,0 l/m 0 min 0 min 344 W/m 4,5 km/h (1 Bft) 100,00 %
25.06.2018 11:46 17,6 C 20,6 C 16,7 C 83 % 1022,8 hPa 0,0 l/m 0 min 0 min 388 W/m 6,8 km/h (2 Bft) 100,00 %
25.06.2018 11:48 17,6 C 21,1 C 16,7 C 82 % 1022,8 hPa 0,0 l/m 2 min 0 min 464 W/m 9,0 km/h (2 Bft) 100,00 %
25.06.2018 11:50 17,7 C 21,1 C 16,7 C 82 % 1022,8 hPa 0,0 l/m 2 min 0 min 460 W/m 6,8 km/h (2 Bft) 100,00 %
25.06.2018 11:52 17,7 C 20,6 C 16,7 C 82 % 1022,8 hPa 0,0 l/m 0 min 0 min 357 W/m 6,8 km/h (2 Bft) 100,00 %
25.06.2018 11:54 17,8 C 20,0 C 16,7 C 82 % 1022,9 hPa 0,0 l/m 0 min 0 min 332 W/m 4,5 km/h (1 Bft) 100,00 %
25.06.2018 11:56 17,8 C 20,0 C 16,7 C 81 % 1022,9 hPa 0,0 l/m 0 min 0 min 318 W/m 6,8 km/h (2 Bft) 100,00 %
25.06.2018 11:58 17,9 C 20,0 C 16,7 C 81 % 1022,9 hPa 0,0 l/m 0 min 0 min 364 W/m 6,8 km/h (2 Bft) 100,00 %
25.06.2018 12:00 17,9 C 20,6 C 16,7 C 81 % 1022,9 hPa 0,0 l/m 0 min 0 min 392 W/m 9,0 km/h (2 Bft) 100,00 %
25.06.2018 12:02 18,0 C 20,6 C 16,7 C 82 % 1022,9 hPa 0,0 l/m 0 min 0 min 349 W/m 9,0 km/h (2 Bft) 97,83 %
25.06.2018 12:04 18,1 C 20,0 C 16,7 C 81 % 1022,9 hPa 0,0 l/m 0 min 0 min 338 W/m 4,5 km/h (1 Bft) 100,00 %
25.06.2018 12:08 18,1 C 20,0 C 16,7 C 81 % 1022,9 hPa 0,0 l/m 0 min 0 min 353 W/m 11,3 km/h (2 Bft) 100,00 %
25.06.2018 12:10 18,2 C 19,4 C 16,7 C 80 % 1022,8 hPa 0,0 l/m 0 min 0 min 311 W/m 9,0 km/h (2 Bft) 100,00 %
25.06.2018 12:12 18,2 C 19,4 C 16,7 C 80 % 1022,9 hPa 0,0 l/m 0 min 0 min 281 W/m 13,5 km/h (3 Bft) 100,00 %
25.06.2018 12:14 18,2 C 18,9 C 16,7 C 80 % 1022,9 hPa 0,0 l/m 0 min 0 min 234 W/m 11,3 km/h (2 Bft) 100,00 %
25.06.2018 12:16 18,2 C 18,9 C 16,7 C 80 % 1022,8 hPa 0,0 l/m 0 min 0 min 203 W/m 15,8 km/h (3 Bft) 97,87 %
25.06.2018 12:18 18,2 C 18,3 C 16,7 C 79 % 1022,9 hPa 0,0 l/m 0 min 0 min 190 W/m 11,3 km/h (2 Bft) 95,74 %
25.06.2018 12:20 18,1 C 18,3 C 16,7 C 79 % 1022,9 hPa 0,0 l/m 0 min 0 min 190 W/m 9,0 km/h (2 Bft) 95,74 %
25.06.2018 12:22 18,1 C 18,3 C 16,7 C 79 % 1022,9 hPa 0,0 l/m 0 min 0 min 194 W/m 11,3 km/h (2 Bft) 95,74 %
25.06.2018 12:24 18,1 C 18,3 C 16,7 C 79 % 1022,8 hPa 0,0 l/m 0 min 0 min 192 W/m 11,3 km/h (2 Bft) 97,87 %
25.06.2018 12:26 18,0 C 18,3 C 16,7 C 79 % 1022,9 hPa 0,0 l/m 0 min 0 min 192 W/m 9,0 km/h (2 Bft) 95,65 %
25.06.2018 12:28 18,0 C 18,3 C 16,7 C 80 % 1022,9 hPa 0,0 l/m 0 min 0 min 197 W/m 6,8 km/h (2 Bft) 95,74 %
25.06.2018 12:30 18,0 C 18,3 C 16,7 C 80 % 1022,9 hPa 0,0 l/m 0 min 0 min 244 W/m 6,8 km/h (2 Bft) 95,74 %
25.06.2018 12:32 18,0 C 18,9 C 16,7 C 81 % 1022,9 hPa 0,0 l/m 0 min 0 min 264 W/m 9,0 km/h (2 Bft) 95,74 %
25.06.2018 12:34 18,0 C 18,9 C 16,7 C 81 % 1022,9 hPa 0,0 l/m 0 min 0 min 236 W/m 9,0 km/h (2 Bft) 97,87 %
25.06.2018 12:36 18,0 C 18,9 C 16,7 C 81 % 1022,8 hPa 0,0 l/m 0 min 0 min 230 W/m 11,3 km/h (2 Bft) 97,83 %
25.06.2018 12:38 18,0 C 18,9 C 16,7 C 81 % 1022,8 hPa 0,0 l/m 0 min 0 min 230 W/m 4,5 km/h (1 Bft) 97,87 %
25.06.2018 12:40 18,0 C 18,3 C 16,7 C 81 % 1022,8 hPa 0,0 l/m 0 min 0 min 245 W/m 6,8 km/h (2 Bft) 93,62 %
25.06.2018 12:42 18,0 C 18,9 C 16,7 C 81 % 1022,8 hPa 0,0 l/m 0 min 0 min 275 W/m 6,8 km/h (2 Bft) 91,49 %
25.06.2018 12:44 18,0 C 18,9 C 16,7 C 81 % 1022,9 hPa 0,0 l/m 0 min 0 min 271 W/m 9,0 km/h (2 Bft) 91,49 %
25.06.2018 12:46 18,0 C 18,9 C 16,7 C 81 % 1022,9 hPa 0,0 l/m 0 min 0 min 259 W/m 11,3 km/h (2 Bft) 95,74 %
25.06.2018 12:48 18,1 C 18,9 C 16,7 C 81 % 1022,9 hPa 0,0 l/m 0 min 0 min 247 W/m 15,8 km/h (3 Bft) 93,48 %
25.06.2018 12:50 18,1 C 18,9 C 16,7 C 81 % 1022,9 hPa 0,0 l/m 0 min 0 min 242 W/m 9,0 km/h (2 Bft) 93,62 %
25.06.2018 12:52 18,1 C 18,9 C 16,7 C 81 % 1022,9 hPa 0,0 l/m 0 min 0 min 230 W/m 13,5 km/h (3 Bft) 95,74 %
25.06.2018 12:54 18,1 C 18,9 C 16,7 C 81 % 1022,9 hPa 0,0 l/m 0 min 0 min 223 W/m 9,0 km/h (2 Bft) 93,62 %
25.06.2018 12:56 18,0 C 18,3 C 16,7 C 81 % 1023,0 hPa 0,0 l/m 0 min 0 min 227 W/m 11,3 km/h (2 Bft) 93,62 %
25.06.2018 12:58 18,1 C 18,3 C 16,7 C 81 % 1023,0 hPa 0,0 l/m 0 min 0 min 235 W/m 6,8 km/h (2 Bft) 93,62 %
25.06.2018 13:00 18,1 C 18,9 C 16,7 C 81 % 1023,0 hPa 0,0 l/m 0 min 0 min 265 W/m 11,3 km/h (2 Bft) 95,65 %
25.06.2018 13:02 18,1 C 18,9 C 16,7 C 81 % 1022,9 hPa 0,0 l/m 0 min 0 min 310 W/m 13,5 km/h (3 Bft) 91,49 %
25.06.2018 13:04 18,1 C 18,9 C 16,7 C 81 % 1023,0 hPa 0,0 l/m 0 min 0 min 345 W/m 6,8 km/h (2 Bft) 95,83 %
25.06.2018 13:06 18,1 C 19,4 C 16,7 C 81 % 1022,9 hPa 0,0 l/m 0 min 0 min 359 W/m 9,0 km/h (2 Bft) 95,74 %
25.06.2018 13:08 18,1 C 19,4 C 16,7 C 81 % 1022,9 hPa 0,0 l/m 0 min 0 min 349 W/m 13,5 km/h (3 Bft) 93,62 %
25.06.2018 13:10 18,1 C 19,4 C 16,7 C 81 % 1023,0 hPa 0,0 l/m 0 min 0 min 319 W/m 6,8 km/h (2 Bft) 95,74 %
25.06.2018 13:12 18,1 C 19,4 C 17,2 C 81 % 1022,9 hPa 0,0 l/m 0 min 0 min 302 W/m 6,8 km/h (2 Bft) 91,30 %
25.06.2018 13:14 18,1 C 19,4 C 17,2 C 81 % 1022,9 hPa 0,0 l/m 0 min 0 min 310 W/m 11,3 km/h (2 Bft) 95,74 %
25.06.2018 13:16 18,2 C 19,4 C 17,2 C 81 % 1022,9 hPa 0,0 l/m 0 min 0 min 349 W/m 15,8 km/h (3 Bft) 95,74 %
25.06.2018 13:18 18,2 C 19,4 C 17,2 C 80 % 1022,9 hPa 0,0 l/m 0 min 0 min 377 W/m 9,0 km/h (2 Bft) 97,87 %
25.06.2018 13:20 18,2 C 19,4 C 17,2 C 80 % 1022,9 hPa 0,0 l/m 0 min 0 min 331 W/m 11,3 km/h (2 Bft) 95,74 %
25.06.2018 13:22 18,2 C 19,4 C 17,2 C 80 % 1022,8 hPa 0,0 l/m 0 min 0 min 312 W/m 11,3 km/h (2 Bft) 93,62 %
25.06.2018 13:24 18,3 C 19,4 C 17,2 C 80 % 1022,8 hPa 0,0 l/m 0 min 0 min 317 W/m 6,8 km/h (2 Bft) 95,65 %
25.06.2018 13:26 18,3 C 19,4 C 17,2 C 80 % 1022,8 hPa 0,0 l/m 0 min 0 min 333 W/m 11,3 km/h (2 Bft) 95,74 %
25.06.2018 13:28 18,3 C 20,0 C 17,2 C 80 % 1022,8 hPa 0,0 l/m 0 min 0 min 351 W/m 9,0 km/h (2 Bft) 95,74 %
25.06.2018 13:30 18,4 C 20,0 C 17,2 C 80 % 1022,8 hPa 0,0 l/m 0 min 0 min 324 W/m 9,0 km/h (2 Bft) 95,74 %
25.06.2018 13:32 18,4 C 19,4 C 17,2 C 80 % 1022,8 hPa 0,0 l/m 0 min 0 min 278 W/m 11,3 km/h (2 Bft) 97,87 %
25.06.2018 13:34 18,4 C 19,4 C 17,2 C 80 % 1022,8 hPa 0,0 l/m 0 min 0 min 257 W/m 15,8 km/h (3 Bft) 95,65 %
25.06.2018 13:36 18,4 C 19,4 C 17,2 C 79 % 1022,8 hPa 0,0 l/m 0 min 0 min 268 W/m 18,0 km/h (3 Bft) 97,87 %
25.06.2018 13:38 18,4 C 19,4 C 17,2 C 79 % 1022,8 hPa 0,0 l/m 0 min 0 min 276 W/m 11,3 km/h (2 Bft) 97,87 %
25.06.2018 13:40 18,4 C 18,9 C 17,2 C 79 % 1022,8 hPa 0,0 l/m 0 min 0 min 278 W/m 11,3 km/h (2 Bft) 97,87 %
25.06.2018 13:42 18,5 C 19,4 C 17,2 C 79 % 1022,8 hPa 0,0 l/m 0 min 0 min 296 W/m 11,3 km/h (2 Bft) 100,00 %
25.06.2018 13:44 18,5 C 19,4 C 17,2 C 79 % 1022,9 hPa 0,0 l/m 0 min 0 min 308 W/m 11,3 km/h (2 Bft) 97,87 %
25.06.2018 13:46 18,4 C 19,4 C 17,2 C 78 % 1022,9 hPa 0,0 l/m 0 min 0 min 300 W/m 11,3 km/h (2 Bft) 100,00 %
25.06.2018 13:48 18,5 C 19,4 C 17,2 C 78 % 1022,9 hPa 0,0 l/m 0 min 0 min 276 W/m 11,3 km/h (2 Bft) 100,00 %
25.06.2018 13:50 18,4 C 18,9 C 17,2 C 78 % 1022,9 hPa 0,0 l/m 0 min 0 min 266 W/m 11,3 km/h (2 Bft) 100,00 %
25.06.2018 13:52 18,4 C 18,9 C 17,2 C 78 % 1022,9 hPa 0,0 l/m 0 min 0 min 257 W/m 11,3 km/h (2 Bft) 100,00 %
25.06.2018 13:54 18,5 C 18,9 C 17,2 C 79 % 1022,9 hPa 0,0 l/m 0 min 0 min 268 W/m 9,0 km/h (2 Bft) 100,00 %
25.06.2018 13:56 18,5 C 19,4 C 17,2 C 79 % 1022,9 hPa 0,0 l/m 0 min 0 min 273 W/m 6,8 km/h (2 Bft) 100,00 %
25.06.2018 13:58 18,5 C 19,4 C 17,2 C 79 % 1022,9 hPa 0,0 l/m 0 min 0 min 294 W/m 9,0 km/h (2 Bft) 97,83 %
25.06.2018 14:00 18,5 C 19,4 C 17,2 C 79 % 1022,9 hPa 0,0 l/m 0 min 0 min 306 W/m 9,0 km/h (2 Bft) 100,00 %
25.06.2018 14:02 18,6 C 19,4 C 17,2 C 79 % 1022,9 hPa 0,0 l/m 0 min 0 min 299 W/m 6,8 km/h (2 Bft) 100,00 %
25.06.2018 14:04 18,6 C 19,4 C 17,2 C 79 % 1023,0 hPa 0,0 l/m 0 min 0 min 261 W/m 6,8 km/h (2 Bft) 100,00 %
25.06.2018 14:06 18,6 C 19,4 C 17,2 C 79 % 1023,0 hPa 0,0 l/m 0 min 0 min 251 W/m 9,0 km/h (2 Bft) 100,00 %
25.06.2018 14:08 18,6 C 19,4 C 17,2 C 79 % 1023,0 hPa 0,0 l/m 0 min 0 min 263 W/m 9,0 km/h (2 Bft) 97,87 %
25.06.2018 14:10 18,6 C 19,4 C 17,2 C 79 % 1022,9 hPa 0,0 l/m 0 min 0 min 265 W/m 6,8 km/h (2 Bft) 100,00 %
25.06.2018 14:12 18,6 C 19,4 C 17,2 C 79 % 1022,9 hPa 0,0 l/m 0 min 0 min 251 W/m 9,0 km/h (2 Bft) 100,00 %
25.06.2018 14:14 18,6 C 19,4 C 17,2 C 79 % 1022,9 hPa 0,0 l/m 0 min 0 min 236 W/m 4,5 km/h (1 Bft) 100,00 %
25.06.2018 14:16 18,6 C 19,4 C 17,2 C 79 % 1023,0 hPa 0,0 l/m 0 min 0 min 238 W/m 9,0 km/h (2 Bft) 100,00 %
25.06.2018 14:18 18,6 C 19,4 C 17,2 C 79 % 1022,9 hPa 0,0 l/m 0 min 0 min 257 W/m 9,0 km/h (2 Bft) 100,00 %
25.06.2018 14:20 18,6 C 19,4 C 17,2 C 79 % 1022,9 hPa 0,0 l/m 0 min 0 min 287 W/m 6,8 km/h (2 Bft) 97,87 %
25.06.2018 14:22 18,6 C 19,4 C 17,2 C 79 % 1022,9 hPa 0,0 l/m 0 min 0 min 314 W/m 4,5 km/h (1 Bft) 100,00 %
25.06.2018 14:24 18,6 C 20,0 C 17,2 C 79 % 1022,9 hPa 0,0 l/m 0 min 0 min 330 W/m 6,8 km/h (2 Bft) 100,00 %
25.06.2018 14:26 18,7 C 20,0 C 17,8 C 79 % 1022,8 hPa 0,0 l/m 0 min 0 min 346 W/m 6,8 km/h (2 Bft) 100,00 %
25.06.2018 14:28 18,7 C 20,0 C 17,8 C 79 % 1022,8 hPa 0,0 l/m 0 min 0 min 381 W/m 4,5 km/h (1 Bft) 100,00 %
25.06.2018 14:30 18,7 C 20,6 C 17,8 C 79 % 1022,8 hPa 0,0 l/m 0 min 0 min 422 W/m 13,5 km/h (3 Bft) 100,00 %
25.06.2018 14:32 18,8 C 21,1 C 17,8 C 79 % 1022,8 hPa 0,0 l/m 0 min 0 min 441 W/m 9,0 km/h (2 Bft) 100,00 %
25.06.2018 14:34 18,8 C 21,1 C 17,8 C 79 % 1022,8 hPa 0,0 l/m 2 min 0 min 475 W/m 9,0 km/h (2 Bft) 100,00 %
25.06.2018 14:36 18,9 C 21,1 C 18,3 C 79 % 1022,8 hPa 0,0 l/m 2 min 0 min 494 W/m 11,3 km/h (2 Bft) 100,00 %
25.06.2018 14:38 18,9 C 21,7 C 18,3 C 78 % 1022,7 hPa 0,0 l/m 0 min 0 min 400 W/m 4,5 km/h (1 Bft) 100,00 %
25.06.2018 14:40 18,9 C 21,7 C 18,3 C 78 % 1022,8 hPa 0,0 l/m 2 min 0 min 968 W/m 6,8 km/h (2 Bft) 100,00 %
25.06.2018 14:42 19,0 C 21,1 C 18,3 C 78 % 1022,7 hPa 0,0 l/m 2 min 0 min 1023 W/m 4,5 km/h (1 Bft) 100,00 %
25.06.2018 14:44 19,1 C 21,7 C 18,3 C 78 % 1022,7 hPa 0,0 l/m 2 min 0 min 1033 W/m 6,8 km/h (2 Bft) 100,00 %
25.06.2018 14:46 19,2 C 21,7 C 18,3 C 78 % 1022,7 hPa 0,0 l/m 2 min 0 min 1015 W/m 6,8 km/h (2 Bft) 97,87 %
25.06.2018 14:48 19,3 C 21,7 C 18,9 C 77 % 1022,7 hPa 0,0 l/m 2 min 0 min 1064 W/m 6,8 km/h (2 Bft) 97,87 %
25.06.2018 14:50 19,4 C 22,2 C 18,9 C 77 % 1022,7 hPa 0,0 l/m 2 min 0 min 1076 W/m 4,5 km/h (1 Bft) 97,87 %
25.06.2018 14:52 19,5 C 22,2 C 18,9 C 77 % 1022,6 hPa 0,0 l/m 2 min 0 min 1076 W/m 6,8 km/h (2 Bft) 97,87 %
25.06.2018 14:54 19,6 C 22,2 C 18,9 C 76 % 1022,6 hPa 0,0 l/m 2 min 0 min 1076 W/m 4,5 km/h (1 Bft) 97,87 %
25.06.2018 14:56 19,7 C 22,2 C 18,9 C 74 % 1022,6 hPa 0,0 l/m 2 min 0 min 1076 W/m 6,8 km/h (2 Bft) 97,83 %
25.06.2018 14:58 19,8 C 22,2 C 18,9 C 74 % 1022,6 hPa 0,0 l/m 0 min 0 min 388 W/m 6,8 km/h (2 Bft) 95,74 %
25.06.2018 15:00 19,9 C 21,7 C 18,9 C 74 % 1022,6 hPa 0,0 l/m 0 min 0 min 305 W/m 6,8 km/h (2 Bft) 97,87 %
25.06.2018 15:02 19,9 C 21,1 C 18,3 C 73 % 1022,6 hPa 0,0 l/m 0 min 0 min 237 W/m 4,5 km/h (1 Bft) 93,62 %
25.06.2018 15:04 19,9 C 20,6 C 18,3 C 73 % 1022,6 hPa 0,0 l/m 0 min 0 min 197 W/m 4,5 km/h (1 Bft) 97,87 %
25.06.2018 15:06 19,9 C 20,6 C 18,3 C 73 % 1022,6 hPa 0,0 l/m 0 min 0 min 195 W/m 6,8 km/h (2 Bft) 97,87 %
25.06.2018 15:08 20,0 C 20,6 C 18,3 C 73 % 1022,6 hPa 0,0 l/m 0 min 0 min 220 W/m 6,8 km/h (2 Bft) 97,83 %
25.06.2018 15:10 20,0 C 20,6 C 18,3 C 73 % 1022,6 hPa 0,0 l/m 0 min 0 min 282 W/m 6,8 km/h (2 Bft) 97,87 %
25.06.2018 15:12 20,1 C 21,1 C 18,3 C 73 % 1022,6 hPa 0,0 l/m 0 min 0 min 299 W/m 6,8 km/h (2 Bft) 97,87 %
25.06.2018 15:14 20,1 C 21,7 C 18,9 C 73 % 1022,6 hPa 0,0 l/m 2 min 0 min 730 W/m 9,0 km/h (2 Bft) 95,74 %
25.06.2018 15:16 20,1 C 21,1 C 18,9 C 73 % 1022,6 hPa 0,0 l/m 2 min 0 min 464 W/m 4,5 km/h (1 Bft) 97,87 %
25.06.2018 15:18 20,2 C 21,7 C 18,9 C 73 % 1022,6 hPa 0,0 l/m 2 min 0 min 655 W/m 6,8 km/h (2 Bft) 95,74 %
25.06.2018 15:20 20,3 C 21,7 C 18,9 C 73 % 1022,5 hPa 0,0 l/m 2 min 0 min 941 W/m 9,0 km/h (2 Bft) 97,83 %
25.06.2018 15:22 20,3 C 21,7 C 18,9 C 73 % 1022,5 hPa 0,0 l/m 2 min 0 min 950 W/m 9,0 km/h (2 Bft) 97,87 %
25.06.2018 15:24 20,4 C 22,2 C 19,4 C 73 % 1022,5 hPa 0,0 l/m 2 min 0 min 927 W/m 4,5 km/h (1 Bft) 97,87 %
25.06.2018 15:26 20,5 C 22,2 C 19,4 C 72 % 1022,5 hPa 0,0 l/m 2 min 0 min 944 W/m 6,8 km/h (2 Bft) 97,87 %
25.06.2018 15:28 20,6 C 22,8 C 19,4 C 72 % 1022,5 hPa 0,0 l/m 2 min 0 min 977 W/m 11,3 km/h (2 Bft) 100,00 %
25.06.2018 15:30 20,7 C 22,2 C 19,4 C 72 % 1022,5 hPa 0,0 l/m 2 min 0 min 730 W/m 11,3 km/h (2 Bft) 100,00 %
25.06.2018 15:32 20,7 C 22,2 C 19,4 C 71 % 1022,5 hPa 0,0 l/m 0 min 0 min 287 W/m 4,5 km/h (1 Bft) 100,00 %
25.06.2018 15:34 20,7 C 22,2 C 19,4 C 71 % 1022,4 hPa 0,0 l/m 0 min 0 min 279 W/m 15,8 km/h (3 Bft) 100,00 %
25.06.2018 15:36 20,8 C 21,7 C 19,4 C 71 % 1022,5 hPa 0,0 l/m 0 min 0 min 260 W/m 6,8 km/h (2 Bft) 97,87 %
25.06.2018 15:38 20,8 C 21,7 C 18,9 C 70 % 1022,5 hPa 0,0 l/m 0 min 0 min 259 W/m 6,8 km/h (2 Bft) 97,87 %
25.06.2018 15:40 20,8 C 21,7 C 18,9 C 70 % 1022,5 hPa 0,0 l/m 0 min 0 min 272 W/m 4,5 km/h (1 Bft) 97,87 %
25.06.2018 15:42 20,8 C 21,7 C 18,9 C 71 % 1022,5 hPa 0,0 l/m 0 min 0 min 314 W/m 9,0 km/h (2 Bft) 97,83 %
25.06.2018 15:44 20,8 C 22,2 C 18,9 C 71 % 1022,5 hPa 0,0 l/m 0 min 0 min 367 W/m 9,0 km/h (2 Bft) 95,74 %
25.06.2018 15:46 20,9 C 22,8 C 19,4 C 72 % 1022,4 hPa 0,0 l/m 0 min 0 min 379 W/m 11,3 km/h (2 Bft) 93,62 %
25.06.2018 15:48 20,9 C 22,8 C 19,4 C 70 % 1022,4 hPa 0,0 l/m 0 min 0 min 404 W/m 11,3 km/h (2 Bft) 97,87 %
25.06.2018 15:50 20,9 C 23,9 C 19,4 C 70 % 1022,4 hPa 0,0 l/m 0 min 0 min 397 W/m 6,8 km/h (2 Bft) 97,87 %
25.06.2018 15:52 21,0 C 23,9 C 19,4 C 70 % 1022,4 hPa 0,0 l/m 0 min 0 min 397 W/m 11,3 km/h (2 Bft) 95,74 %
25.06.2018 15:54 21,0 C 22,8 C 19,4 C 69 % 1022,4 hPa 0,0 l/m 0 min 0 min 370 W/m 9,0 km/h (2 Bft) 95,65 %
25.06.2018 15:56 21,0 C 23,9 C 19,4 C 70 % 1022,4 hPa 0,0 l/m 0 min 0 min 323 W/m 6,8 km/h (2 Bft) 95,74 %
25.06.2018 15:58 21,1 C 24,4 C 20,0 C 70 % 1022,4 hPa 0,0 l/m 2 min 0 min 749 W/m 13,5 km/h (3 Bft) 97,87 %
25.06.2018 16:00 21,1 C 23,3 C 20,0 C 69 % 1022,5 hPa 0,0 l/m 0 min 0 min 389 W/m 13,5 km/h (3 Bft) 97,87 %
25.06.2018 16:02 21,1 C 22,8 C 19,4 C 68 % 1022,5 hPa 0,0 l/m 0 min 0 min 230 W/m 9,0 km/h (2 Bft) 95,74 %
25.06.2018 16:04 21,1 C 21,7 C 19,4 C 68 % 1022,4 hPa 0,0 l/m 0 min 0 min 218 W/m 4,5 km/h (1 Bft) 95,74 %
25.06.2018 16:06 21,1 C 21,7 C 19,4 C 68 % 1022,4 hPa 0,0 l/m 0 min 0 min 222 W/m 6,8 km/h (2 Bft) 93,48 %
25.06.2018 16:08 21,1 C 21,7 C 19,4 C 68 % 1022,4 hPa 0,0 l/m 0 min 0 min 233 W/m 9,0 km/h (2 Bft) 93,62 %
25.06.2018 16:10 21,1 C 21,1 C 19,4 C 68 % 1022,4 hPa 0,0 l/m 0 min 0 min 261 W/m 9,0 km/h (2 Bft) 93,62 %
25.06.2018 16:12 21,1 C 21,7 C 19,4 C 69 % 1022,3 hPa 0,0 l/m 0 min 0 min 326 W/m 9,0 km/h (2 Bft) 95,74 %
25.06.2018 16:14 21,1 C 22,2 C 19,4 C 69 % 1022,3 hPa 0,0 l/m 0 min 0 min 379 W/m 9,0 km/h (2 Bft) 93,62 %
25.06.2018 16:16 21,1 C 23,9 C 19,4 C 69 % 1022,3 hPa 0,0 l/m 2 min 0 min 387 W/m 11,3 km/h (2 Bft) 97,87 %
25.06.2018 16:18 21,2 C 24,4 C 20,0 C 69 % 1022,2 hPa 0,0 l/m 0 min 0 min 358 W/m 9,0 km/h (2 Bft) 95,65 %
25.06.2018 16:20 21,2 C 25,6 C 20,0 C 69 % 1022,2 hPa 0,0 l/m 2 min 0 min 941 W/m 9,0 km/h (2 Bft) 95,74 %
25.06.2018 16:22 21,4 C 26,1 C 20,6 C 69 % 1022,3 hPa 0,0 l/m 2 min 0 min 904 W/m 6,8 km/h (2 Bft) 95,74 %
25.06.2018 16:24 21,5 C 26,1 C 20,6 C 68 % 1022,2 hPa 0,0 l/m 2 min 0 min 866 W/m 6,8 km/h (2 Bft) 93,62 %
25.06.2018 16:26 21,6 C 26,1 C 21,1 C 68 % 1022,3 hPa 0,0 l/m 2 min 0 min 840 W/m 6,8 km/h (2 Bft) 97,87 %
25.06.2018 16:28 21,7 C 26,7 C 21,1 C 68 % 1022,2 hPa 0,0 l/m 2 min 0 min 843 W/m 9,0 km/h (2 Bft) 95,74 %
25.06.2018 16:30 21,8 C 27,2 C 21,1 C 68 % 1022,2 hPa 0,0 l/m 2 min 0 min 853 W/m 11,3 km/h (2 Bft) 95,65 %
25.06.2018 16:32 22,0 C 27,2 C 21,1 C 68 % 1022,2 hPa 0,0 l/m 2 min 0 min 851 W/m 11,3 km/h (2 Bft) 97,87 %
25.06.2018 16:34 22,2 C 26,7 C 21,1 C 66 % 1022,1 hPa 0,0 l/m 2 min 0 min 840 W/m 11,3 km/h (2 Bft) 97,87 %
25.06.2018 16:36 22,2 C 25,0 C 20,6 C 66 % 1022,1 hPa 0,0 l/m 2 min 0 min 559 W/m 13,5 km/h (3 Bft) 97,87 %
25.06.2018 16:38 22,3 C 24,4 C 20,6 C 65 % 1022,2 hPa 0,0 l/m 0 min 0 min 238 W/m 11,3 km/h (2 Bft) 93,62 %
25.06.2018 16:40 22,3 C 25,0 C 20,6 C 65 % 1022,1 hPa 0,0 l/m 2 min 0 min 478 W/m 9,0 km/h (2 Bft) 97,87 %
25.06.2018 16:42 22,3 C 26,1 C 20,6 C 66 % 1022,2 hPa 0,0 l/m 2 min 0 min 859 W/m 9,0 km/h (2 Bft) 97,83 %
25.06.2018 16:44 22,4 C 26,7 C 21,1 C 66 % 1022,1 hPa 0,0 l/m 2 min 0 min 877 W/m 6,8 km/h (2 Bft) 97,87 %
25.06.2018 16:46 22,5 C 26,1 C 21,1 C 64 % 1022,1 hPa 0,0 l/m 2 min 0 min 896 W/m 6,8 km/h (2 Bft) 97,87 %
25.06.2018 16:48 22,6 C 25,0 C 20,6 C 64 % 1022,2 hPa 0,0 l/m 2 min 0 min 624 W/m 6,8 km/h (2 Bft) 97,87 %
25.06.2018 16:50 22,6 C 23,9 C 20,6 C 64 % 1022,1 hPa 0,0 l/m 0 min 0 min 313 W/m 11,3 km/h (2 Bft) 97,87 %
25.06.2018 16:52 22,6 C 23,9 C 20,6 C 65 % 1022,1 hPa 0,0 l/m 0 min 0 min 318 W/m 4,5 km/h (1 Bft) 95,74 %
25.06.2018 16:54 22,7 C 23,9 C 20,6 C 65 % 1022,0 hPa 0,0 l/m 0 min 0 min 283 W/m 4,5 km/h (1 Bft) 97,83 %
25.06.2018 16:56 22,7 C 23,3 C 20,6 C 64 % 1022,0 hPa 0,0 l/m 0 min 0 min 289 W/m 9,0 km/h (2 Bft) 95,74 %
25.06.2018 16:58 22,7 C 23,9 C 20,6 C 63 % 1022,1 hPa 0,0 l/m 2 min 0 min 540 W/m 13,5 km/h (3 Bft) 97,87 %
25.06.2018 17:00 22,7 C 25,6 C 21,1 C 65 % 1022,0 hPa 0,0 l/m 2 min 0 min 847 W/m 6,8 km/h (2 Bft) 97,87 %
25.06.2018 17:02 22,7 C 25,6 C 21,1 C 64 % 1022,1 hPa 0,0 l/m 2 min 0 min 809 W/m 13,5 km/h (3 Bft) 100,00 %
25.06.2018 17:04 22,8 C 26,1 C 21,1 C 63 % 1022,1 hPa 0,0 l/m 2 min 0 min 775 W/m 13,5 km/h (3 Bft) 97,83 %
25.06.2018 17:06 22,8 C 26,1 C 21,1 C 63 % 1022,1 hPa 0,0 l/m 2 min 0 min 751 W/m 11,3 km/h (2 Bft) 100,00 %
25.06.2018 17:08 22,9 C 25,6 C 21,1 C 64 % 1022,1 hPa 0,0 l/m 2 min 0 min 752 W/m 9,0 km/h (2 Bft) 95,74 %
25.06.2018 17:10 22,9 C 24,4 C 20,6 C 63 % 1022,0 hPa 0,0 l/m 0 min 0 min 258 W/m 11,3 km/h (2 Bft) 97,87 %
25.06.2018 17:12 22,9 C 23,9 C 20,6 C 62 % 1022,0 hPa 0,0 l/m 0 min 0 min 147 W/m 11,3 km/h (2 Bft) 97,87 %
25.06.2018 17:14 22,9 C 25,0 C 20,6 C 62 % 1022,0 hPa 0,0 l/m 2 min 0 min 552 W/m 9,0 km/h (2 Bft) 97,87 %
25.06.2018 17:16 22,9 C 24,4 C 20,6 C 62 % 1022,0 hPa 0,0 l/m 2 min 0 min 747 W/m 6,8 km/h (2 Bft) 97,87 %
25.06.2018 17:18 22,9 C 23,3 C 20,6 C 61 % 1021,9 hPa 0,0 l/m 2 min 0 min 747 W/m 9,0 km/h (2 Bft) 97,83 %
25.06.2018 17:20 22,9 C 23,3 C 20,6 C 61 % 1022,0 hPa 0,0 l/m 2 min 0 min 384 W/m 9,0 km/h (2 Bft) 95,74 %
25.06.2018 17:22 22,9 C 23,3 C 20,6 C 62 % 1022,0 hPa 0,0 l/m 0 min 0 min 202 W/m 9,0 km/h (2 Bft) 95,74 %
25.06.2018 17:24 22,8 C 23,9 C 20,6 C 62 % 1022,0 hPa 0,0 l/m 0 min 0 min 202 W/m 4,5 km/h (1 Bft) 97,87 %
25.06.2018 17:26 22,8 C 24,4 C 21,1 C 62 % 1021,9 hPa 0,0 l/m 2 min 0 min 554 W/m 9,0 km/h (2 Bft) 97,87 %
25.06.2018 17:28 22,8 C 24,4 C 21,1 C 61 % 1021,9 hPa 0,0 l/m 2 min 0 min 722 W/m 15,8 km/h (3 Bft) 97,87 %
25.06.2018 17:30 22,8 C 23,9 C 21,1 C 60 % 1021,9 hPa 0,0 l/m 2 min 0 min 455 W/m 6,8 km/h (2 Bft) 97,83 %
25.06.2018 17:32 22,8 C 24,4 C 21,1 C 61 % 1021,9 hPa 0,0 l/m 2 min 0 min 605 W/m 4,5 km/h (1 Bft) 97,87 %
25.06.2018 17:34 22,9 C 25,0 C 21,1 C 61 % 1021,9 hPa 0,0 l/m 2 min 0 min 744 W/m 9,0 km/h (2 Bft) 97,87 %
25.06.2018 17:36 22,9 C 24,4 C 21,1 C 60 % 1021,9 hPa 0,0 l/m 2 min 0 min 671 W/m 13,5 km/h (3 Bft) 97,87 %
25.06.2018 17:38 22,9 C 23,9 C 21,1 C 60 % 1021,9 hPa 0,0 l/m 0 min 0 min 195 W/m 6,8 km/h (2 Bft) 95,74 %
25.06.2018 17:40 22,9 C 23,9 C 21,1 C 60 % 1021,8 hPa 0,0 l/m 0 min 0 min 225 W/m 11,3 km/h (2 Bft) 97,83 %
25.06.2018 17:42 22,9 C 23,9 C 21,1 C 60 % 1021,8 hPa 0,0 l/m 2 min 0 min 710 W/m 9,0 km/h (2 Bft) 97,87 %
25.06.2018 17:44 22,9 C 23,9 C 21,1 C 60 % 1021,8 hPa 0,0 l/m 2 min 0 min 679 W/m 13,5 km/h (3 Bft) 97,87 %
25.06.2018 17:46 22,9 C 23,3 C 20,6 C 61 % 1021,8 hPa 0,0 l/m 0 min 0 min 245 W/m 11,3 km/h (2 Bft) 97,87 %
25.06.2018 17:48 22,9 C 22,8 C 20,6 C 60 % 1021,8 hPa 0,0 l/m 0 min 0 min 173 W/m 11,3 km/h (2 Bft) 97,87 %
25.06.2018 17:50 22,9 C 22,2 C 20,6 C 60 % 1021,8 hPa 0,0 l/m 0 min 0 min 171 W/m 9,0 km/h (2 Bft) 95,74 %
25.06.2018 17:52 22,8 C 22,2 C 20,6 C 60 % 1021,8 hPa 0,0 l/m 0 min 0 min 163 W/m 9,0 km/h (2 Bft) 100,00 %
25.06.2018 17:54 22,7 C 22,2 C 20,6 C 60 % 1021,9 hPa 0,0 l/m 0 min 0 min 179 W/m 11,3 km/h (2 Bft) 100,00 %
25.06.2018 17:56 22,7 C 21,7 C 20,6 C 59 % 1021,8 hPa 0,0 l/m 0 min 0 min 173 W/m 11,3 km/h (2 Bft) 100,00 %
25.06.2018 17:58 22,6 C 22,2 C 20,6 C 60 % 1021,8 hPa 0,0 l/m 0 min 0 min 204 W/m 9,0 km/h (2 Bft) 97,87 %
25.06.2018 18:00 22,6 C 22,8 C 20,6 C 60 % 1021,8 hPa 0,0 l/m 2 min 0 min 461 W/m 4,5 km/h (1 Bft) 100,00 %
25.06.2018 18:02 22,6 C 23,3 C 21,1 C 60 % 1021,8 hPa 0,0 l/m 2 min 0 min 615 W/m 11,3 km/h (2 Bft) 100,00 %
25.06.2018 18:04 22,6 C 23,3 C 21,1 C 60 % 1021,8 hPa 0,0 l/m 2 min 0 min 593 W/m 9,0 km/h (2 Bft) 100,00 %
25.06.2018 18:08 22,6 C 23,3 C 21,1 C 59 % 1021,8 hPa 0,0 l/m 4 min 0 min 591 W/m 20,3 km/h (4 Bft) 98,94 %
25.06.2018 18:10 22,6 C 23,9 C 21,1 C 59 % 1021,7 hPa 0,0 l/m 2 min 0 min 588 W/m 4,5 km/h (1 Bft) 100,00 %
25.06.2018 18:12 22,7 C 23,9 C 21,1 C 59 % 1021,7 hPa 0,0 l/m 2 min 0 min 576 W/m 15,8 km/h (3 Bft) 97,87 %
25.06.2018 18:14 22,7 C 23,9 C 21,1 C 58 % 1021,7 hPa 0,0 l/m 2 min 0 min 569 W/m 15,8 km/h (3 Bft) 100,00 %
25.06.2018 18:16 22,7 C 23,9 C 21,1 C 59 % 1021,7 hPa 0,0 l/m 2 min 0 min 559 W/m 11,3 km/h (2 Bft) 100,00 %
25.06.2018 18:18 22,8 C 23,9 C 21,1 C 59 % 1021,6 hPa 0,0 l/m 2 min 0 min 554 W/m 11,3 km/h (2 Bft) 100,00 %
25.06.2018 18:20 22,8 C 23,9 C 21,7 C 59 % 1021,7 hPa 0,0 l/m 2 min 0 min 534 W/m 13,5 km/h (3 Bft) 100,00 %
25.06.2018 18:22 22,8 C 23,9 C 21,7 C 58 % 1021,6 hPa 0,0 l/m 2 min 0 min 541 W/m 11,3 km/h (2 Bft) 100,00 %
25.06.2018 18:24 22,9 C 23,9 C 21,7 C 58 % 1021,6 hPa 0,0 l/m 2 min 0 min 538 W/m 15,8 km/h (3 Bft) 97,87 %
25.06.2018 18:26 22,9 C 23,9 C 21,7 C 57 % 1021,6 hPa 0,0 l/m 2 min 0 min 529 W/m 11,3 km/h (2 Bft) 100,00 %
25.06.2018 18:28 22,9 C 23,9 C 21,7 C 58 % 1021,6 hPa 0,0 l/m 2 min 0 min 523 W/m 15,8 km/h (3 Bft) 100,00 %
25.06.2018 18:30 23,0 C 23,9 C 21,7 C 57 % 1021,6 hPa 0,0 l/m 2 min 0 min 517 W/m 11,3 km/h (2 Bft) 100,00 %
25.06.2018 18:32 23,0 C 23,9 C 21,7 C 57 % 1021,6 hPa 0,0 l/m 2 min 0 min 509 W/m 9,0 km/h (2 Bft) 100,00 %
25.06.2018 18:34 23,0 C 23,9 C 21,7 C 58 % 1021,6 hPa 0,0 l/m 2 min 0 min 500 W/m 11,3 km/h (2 Bft) 97,87 %
25.06.2018 18:36 23,1 C 23,9 C 21,1 C 57 % 1021,6 hPa 0,0 l/m 2 min 0 min 490 W/m 15,8 km/h (3 Bft) 97,87 %
25.06.2018 18:38 23,1 C 23,3 C 21,7 C 57 % 1021,6 hPa 0,0 l/m 2 min 0 min 489 W/m 9,0 km/h (2 Bft) 95,35 %
25.06.2018 18:40 23,1 C 23,3 C 21,7 C 57 % 1021,6 hPa 0,0 l/m 2 min 0 min 484 W/m 11,3 km/h (2 Bft) 97,87 %
25.06.2018 18:42 23,1 C 23,3 C 21,1 C 57 % 1021,7 hPa 0,0 l/m 2 min 0 min 477 W/m 15,8 km/h (3 Bft) 97,83 %
25.06.2018 18:44 23,1 C 23,3 C 21,1 C 57 % 1021,6 hPa 0,0 l/m 2 min 0 min 470 W/m 6,8 km/h (2 Bft) 95,74 %
25.06.2018 18:46 23,1 C 23,3 C 21,1 C 57 % 1021,6 hPa 0,0 l/m 2 min 0 min 468 W/m 15,8 km/h (3 Bft) 97,87 %
25.06.2018 18:48 23,1 C 23,3 C 21,1 C 58 % 1021,6 hPa 0,0 l/m 2 min 0 min 460 W/m 11,3 km/h (2 Bft) 97,87 %
25.06.2018 18:50 23,1 C 23,3 C 21,1 C 57 % 1021,7 hPa 0,0 l/m 2 min 0 min 454 W/m 15,8 km/h (3 Bft) 97,87 %
25.06.2018 18:52 23,1 C 23,3 C 21,1 C 57 % 1021,6 hPa 0,0 l/m 2 min 0 min 452 W/m 18,0 km/h (3 Bft) 97,87 %
25.06.2018 18:54 23,1 C 23,3 C 21,1 C 57 % 1021,6 hPa 0,0 l/m 2 min 0 min 448 W/m 11,3 km/h (2 Bft) 97,87 %
25.06.2018 18:56 23,1 C 23,3 C 21,1 C 57 % 1021,6 hPa 0,0 l/m 2 min 0 min 439 W/m 11,3 km/h (2 Bft) 97,87 %
25.06.2018 18:58 23,1 C 22,8 C 21,1 C 57 % 1021,7 hPa 0,0 l/m 2 min 0 min 434 W/m 11,3 km/h (2 Bft) 97,87 %
25.06.2018 19:00 23,0 C 22,8 C 21,1 C 57 % 1021,7 hPa 0,0 l/m 2 min 0 min 429 W/m 9,0 km/h (2 Bft) 95,74 %
25.06.2018 19:02 23,0 C 22,8 C 21,1 C 57 % 1021,6 hPa 0,0 l/m 2 min 0 min 422 W/m 6,8 km/h (2 Bft) 97,87 %
25.06.2018 19:04 22,9 C 22,8 C 21,1 C 58 % 1021,7 hPa 0,0 l/m 2 min 0 min 418 W/m 13,5 km/h (3 Bft) 95,65 %
25.06.2018 19:06 22,9 C 22,8 C 21,1 C 58 % 1021,7 hPa 0,0 l/m 2 min 0 min 411 W/m 18,0 km/h (3 Bft) 95,74 %
25.06.2018 19:08 22,9 C 22,8 C 21,1 C 57 % 1021,7 hPa 0,0 l/m 2 min 0 min 402 W/m 15,8 km/h (3 Bft) 95,74 %
25.06.2018 19:10 22,8 C 22,8 C 20,6 C 57 % 1021,8 hPa 0,0 l/m 2 min 0 min 397 W/m 18,0 km/h (3 Bft) 93,62 %
25.06.2018 19:12 22,8 C 22,8 C 20,6 C 58 % 1021,8 hPa 0,0 l/m 2 min 0 min 396 W/m 9,0 km/h (2 Bft) 97,87 %
25.06.2018 19:14 22,7 C 22,8 C 20,6 C 58 % 1021,8 hPa 0,0 l/m 2 min 0 min 386 W/m 15,8 km/h (3 Bft) 97,87 %
25.06.2018 19:16 22,7 C 22,8 C 20,6 C 58 % 1021,8 hPa 0,0 l/m 2 min 0 min 383 W/m 9,0 km/h (2 Bft) 95,65 %
25.06.2018 19:18 22,7 C 22,8 C 20,6 C 58 % 1021,8 hPa 0,0 l/m 2 min 0 min 379 W/m 11,3 km/h (2 Bft) 93,62 %
25.06.2018 19:20 22,7 C 22,2 C 20,6 C 58 % 1021,8 hPa 0,0 l/m 2 min 0 min 375 W/m 15,8 km/h (3 Bft) 95,74 %
25.06.2018 19:22 22,6 C 22,2 C 20,6 C 57 % 1021,7 hPa 0,0 l/m 2 min 0 min 367 W/m 13,5 km/h (3 Bft) 95,74 %
25.06.2018 19:24 22,6 C 22,2 C 20,6 C 58 % 1021,8 hPa 0,0 l/m 2 min 0 min 359 W/m 9,0 km/h (2 Bft) 95,74 %
25.06.2018 19:26 22,5 C 22,2 C 20,6 C 58 % 1021,7 hPa 0,0 l/m 2 min 0 min 355 W/m 6,8 km/h (2 Bft) 95,74 %
25.06.2018 19:28 22,5 C 22,2 C 20,6 C 58 % 1021,7 hPa 0,0 l/m 2 min 0 min 352 W/m 9,0 km/h (2 Bft) 97,83 %
25.06.2018 19:30 22,4 C 22,2 C 20,6 C 58 % 1021,6 hPa 0,0 l/m 2 min 0 min 346 W/m 13,5 km/h (3 Bft) 95,74 %
25.06.2018 19:32 22,4 C 22,2 C 20,6 C 59 % 1021,6 hPa 0,0 l/m 2 min 0 min 340 W/m 11,3 km/h (2 Bft) 97,87 %
25.06.2018 19:34 22,4 C 22,2 C 20,0 C 59 % 1021,6 hPa 0,0 l/m 2 min 0 min 333 W/m 11,3 km/h (2 Bft) 95,74 %
25.06.2018 19:36 22,3 C 22,2 C 20,6 C 59 % 1021,5 hPa 0,0 l/m 2 min 0 min 329 W/m 13,5 km/h (3 Bft) 97,87 %
25.06.2018 19:38 22,3 C 22,2 C 20,0 C 59 % 1021,5 hPa 0,0 l/m 2 min 0 min 321 W/m 18,0 km/h (3 Bft) 95,74 %
25.06.2018 19:40 22,2 C 21,7 C 20,0 C 59 % 1021,6 hPa 0,0 l/m 2 min 0 min 314 W/m 13,5 km/h (3 Bft) 93,48 %
25.06.2018 19:42 22,1 C 21,7 C 20,0 C 59 % 1021,6 hPa 0,0 l/m 2 min 0 min 309 W/m 9,0 km/h (2 Bft) 95,74 %
25.06.2018 19:44 22,1 C 21,7 C 20,0 C 59 % 1021,5 hPa 0,0 l/m 2 min 0 min 306 W/m 9,0 km/h (2 Bft) 95,74 %
25.06.2018 19:46 22,1 C 21,7 C 20,0 C 59 % 1021,5 hPa 0,0 l/m 2 min 0 min 301 W/m 13,5 km/h (3 Bft) 95,74 %
25.06.2018 19:48 22,0 C 21,7 C 20,0 C 59 % 1021,5 hPa 0,0 l/m 2 min 0 min 295 W/m 9,0 km/h (2 Bft) 93,62 %
25.06.2018 19:50 21,9 C 21,7 C 20,0 C 59 % 1021,5 hPa 0,0 l/m 2 min 0 min 289 W/m 9,0 km/h (2 Bft) 95,74 %
25.06.2018 19:52 21,9 C 21,7 C 20,0 C 59 % 1021,5 hPa 0,0 l/m 2 min 0 min 285 W/m 6,8 km/h (2 Bft) 95,74 %
25.06.2018 19:54 21,9 C 21,1 C 20,0 C 60 % 1021,5 hPa 0,0 l/m 2 min 0 min 281 W/m 11,3 km/h (2 Bft) 95,74 %
25.06.2018 19:56 21,8 C 21,1 C 20,0 C 60 % 1021,4 hPa 0,0 l/m 2 min 0 min 270 W/m 9,0 km/h (2 Bft) 95,74 %
25.06.2018 19:58 21,8 C 21,1 C 20,0 C 60 % 1021,4 hPa 0,0 l/m 2 min 0 min 234 W/m 9,0 km/h (2 Bft) 93,62 %
25.06.2018 20:00 21,7 C 21,1 C 20,0 C 60 % 1021,5 hPa 0,0 l/m 0 min 0 min 118 W/m 9,0 km/h (2 Bft) 95,74 %
25.06.2018 20:02 21,7 C 21,1 C 20,0 C 60 % 1021,5 hPa 0,0 l/m 0 min 0 min 49 W/m 13,5 km/h (3 Bft) 95,65 %
25.06.2018 20:04 21,7 C 21,1 C 20,0 C 61 % 1021,6 hPa 0,0 l/m 0 min 0 min 47 W/m 11,3 km/h (2 Bft) 95,74 %
25.06.2018 20:06 21,6 C 21,1 C 20,0 C 61 % 1021,5 hPa 0,0 l/m 0 min 0 min 47 W/m 11,3 km/h (2 Bft) 95,74 %
25.06.2018 20:08 21,6 C 21,1 C 20,0 C 61 % 1021,5 hPa 0,0 l/m 0 min 0 min 46 W/m 13,5 km/h (3 Bft) 95,74 %
25.06.2018 20:10 21,6 C 20,6 C 20,0 C 61 % 1021,5 hPa 0,0 l/m 0 min 0 min 46 W/m 13,5 km/h (3 Bft) 95,74 %
25.06.2018 20:12 21,5 C 20,6 C 20,0 C 61 % 1021,6 hPa 0,0 l/m 0 min 0 min 44 W/m 6,8 km/h (2 Bft) 89,36 %
25.06.2018 20:14 21,5 C 20,6 C 20,0 C 62 % 1021,5 hPa 0,0 l/m 0 min 0 min 44 W/m 11,3 km/h (2 Bft) 93,48 %
25.06.2018 20:16 21,4 C 20,6 C 20,0 C 62 % 1021,5 hPa 0,0 l/m 0 min 0 min 43 W/m 6,8 km/h (2 Bft) 97,87 %
25.06.2018 20:18 21,4 C 20,6 C 20,0 C 62 % 1021,5 hPa 0,0 l/m 0 min 0 min 42 W/m 9,0 km/h (2 Bft) 100,00 %
25.06.2018 20:20 21,4 C 20,6 C 20,0 C 62 % 1021,6 hPa 0,0 l/m 0 min 0 min 41 W/m 9,0 km/h (2 Bft) 100,00 %
25.06.2018 20:22 21,3 C 20,6 C 20,0 C 62 % 1021,6 hPa 0,0 l/m 0 min 0 min 40 W/m 11,3 km/h (2 Bft) 97,87 %
25.06.2018 20:24 21,3 C 20,6 C 20,0 C 62 % 1021,6 hPa 0,0 l/m 0 min 0 min 40 W/m 9,0 km/h (2 Bft) 97,87 %
25.06.2018 20:26 21,2 C 20,6 C 19,4 C 62 % 1021,6 hPa 0,0 l/m 0 min 0 min 39 W/m 4,5 km/h (1 Bft) 100,00 %
25.06.2018 20:28 21,2 C 20,6 C 19,4 C 63 % 1021,6 hPa 0,0 l/m 0 min 0 min 39 W/m 6,8 km/h (2 Bft) 100,00 %
25.06.2018 20:30 21,2 C 20,6 C 19,4 C 63 % 1021,6 hPa 0,0 l/m 0 min 0 min 37 W/m 13,5 km/h (3 Bft) 100,00 %
25.06.2018 20:32 21,1 C 20,0 C 19,4 C 63 % 1021,7 hPa 0,0 l/m 0 min 0 min 37 W/m 9,0 km/h (2 Bft) 95,74 %
25.06.2018 20:34 21,1 C 20,0 C 19,4 C 63 % 1021,6 hPa 0,0 l/m 0 min 0 min 35 W/m 6,8 km/h (2 Bft) 100,00 %
25.06.2018 20:36 21,1 C 20,0 C 19,4 C 63 % 1021,7 hPa 0,0 l/m 0 min 0 min 34 W/m 9,0 km/h (2 Bft) 100,00 %
25.06.2018 20:38 21,0 C 20,0 C 19,4 C 63 % 1021,6 hPa 0,0 l/m 0 min 0 min 33 W/m 6,8 km/h (2 Bft) 100,00 %
25.06.2018 20:40 21,0 C 20,0 C 19,4 C 63 % 1021,6 hPa 0,0 l/m 0 min 0 min 33 W/m 6,8 km/h (2 Bft) 100,00 %
25.06.2018 20:42 21,0 C 20,0 C 19,4 C 63 % 1021,6 hPa 0,0 l/m 0 min 0 min 32 W/m 6,8 km/h (2 Bft) 97,87 %
25.06.2018 20:44 20,9 C 20,0 C 19,4 C 63 % 1021,6 hPa 0,0 l/m 0 min 0 min 31 W/m 4,5 km/h (1 Bft) 100,00 %
25.06.2018 20:46 20,9 C 20,0 C 19,4 C 63 % 1021,6 hPa 0,0 l/m 0 min 0 min 30 W/m 6,8 km/h (2 Bft) 100,00 %
25.06.2018 20:48 20,8 C 20,0 C 19,4 C 64 % 1021,7 hPa 0,0 l/m 0 min 0 min 30 W/m 9,0 km/h (2 Bft) 97,87 %
25.06.2018 20:50 20,8 C 20,0 C 19,4 C 64 % 1021,7 hPa 0,0 l/m 0 min 0 min 29 W/m 9,0 km/h (2 Bft) 100,00 %
25.06.2018 20:52 20,8 C 20,0 C 19,4 C 64 % 1021,6 hPa 0,0 l/m 0 min 0 min 28 W/m 9,0 km/h (2 Bft) 100,00 %
25.06.2018 20:54 20,7 C 19,4 C 18,9 C 64 % 1021,6 hPa 0,0 l/m 0 min 0 min 28 W/m 9,0 km/h (2 Bft) 100,00 %
25.06.2018 20:56 20,7 C 19,4 C 19,4 C 64 % 1021,6 hPa 0,0 l/m 0 min 0 min 26 W/m 9,0 km/h (2 Bft) 100,00 %
25.06.2018 20:58 20,7 C 19,4 C 19,4 C 64 % 1021,7 hPa 0,0 l/m 0 min 0 min 26 W/m 11,3 km/h (2 Bft) 100,00 %
25.06.2018 21:00 20,7 C 19,4 C 18,9 C 65 % 1021,7 hPa 0,0 l/m 0 min 0 min 25 W/m 4,5 km/h (1 Bft) 100,00 %
25.06.2018 21:02 20,6 C 19,4 C 18,9 C 65 % 1021,7 hPa 0,0 l/m 0 min 0 min 25 W/m 6,8 km/h (2 Bft) 100,00 %
25.06.2018 21:04 20,6 C 19,4 C 18,9 C 65 % 1021,8 hPa 0,0 l/m 0 min 0 min 23 W/m 6,8 km/h (2 Bft) 100,00 %
25.06.2018 21:06 20,6 C 19,4 C 18,9 C 65 % 1021,7 hPa 0,0 l/m 0 min 0 min 23 W/m 9,0 km/h (2 Bft) 100,00 %
25.06.2018 21:08 20,5 C 19,4 C 18,9 C 65 % 1021,7 hPa 0,0 l/m 0 min 0 min 21 W/m 11,3 km/h (2 Bft) 100,00 %
25.06.2018 21:10 20,5 C 19,4 C 18,9 C 65 % 1021,8 hPa 0,0 l/m 0 min 0 min 21 W/m 6,8 km/h (2 Bft) 97,87 %
25.06.2018 21:12 20,4 C 19,4 C 18,9 C 65 % 1021,7 hPa 0,0 l/m 0 min 0 min 20 W/m 11,3 km/h (2 Bft) 100,00 %
25.06.2018 21:14 20,4 C 19,4 C 18,9 C 65 % 1021,8 hPa 0,0 l/m 0 min 0 min 19 W/m 11,3 km/h (2 Bft) 100,00 %
25.06.2018 21:16 20,3 C 19,4 C 18,9 C 65 % 1021,8 hPa 0,0 l/m 0 min 0 min 19 W/m 13,5 km/h (3 Bft) 100,00 %
25.06.2018 21:18 20,3 C 18,9 C 18,9 C 65 % 1021,7 hPa 0,0 l/m 0 min 0 min 18 W/m 9,0 km/h (2 Bft) 100,00 %
25.06.2018 21:20 20,3 C 18,9 C 18,9 C 65 % 1021,7 hPa 0,0 l/m 0 min 0 min 18 W/m 4,5 km/h (1 Bft) 100,00 %
25.06.2018 21:22 20,2 C 18,9 C 18,9 C 65 % 1021,7 hPa 0,0 l/m 0 min 0 min 16 W/m 11,3 km/h (2 Bft) 100,00 %
25.06.2018 21:24 20,2 C 18,9 C 18,3 C 65 % 1021,7 hPa 0,0 l/m 0 min 0 min 16 W/m 9,0 km/h (2 Bft) 100,00 %
25.06.2018 21:26 20,1 C 18,9 C 18,3 C 65 % 1021,8 hPa 0,0 l/m 0 min 0 min 15 W/m 6,8 km/h (2 Bft) 100,00 %
25.06.2018 21:28 20,1 C 18,9 C 18,3 C 65 % 1021,8 hPa 0,0 l/m 0 min 0 min 14 W/m 4,5 km/h (1 Bft) 97,87 %
25.06.2018 21:30 20,0 C 18,9 C 18,3 C 65 % 1021,8 hPa 0,0 l/m 0 min 0 min 14 W/m 6,8 km/h (2 Bft) 100,00 %
25.06.2018 21:32 19,9 C 18,9 C 18,3 C 65 % 1021,7 hPa 0,0 l/m 0 min 0 min 12 W/m 6,8 km/h (2 Bft) 100,00 %
25.06.2018 21:34 19,9 C 18,9 C 18,3 C 65 % 1021,7 hPa 0,0 l/m 0 min 0 min 12 W/m 2,3 km/h (1 Bft) 100,00 %
25.06.2018 21:36 19,9 C 18,9 C 18,3 C 65 % 1021,8 hPa 0,0 l/m 0 min 0 min 11 W/m 2,3 km/h (1 Bft) 100,00 %
25.06.2018 21:38 19,8 C 18,3 C 18,3 C 66 % 1021,9 hPa 0,0 l/m 0 min 0 min 11 W/m 4,5 km/h (1 Bft) 97,87 %
25.06.2018 21:40 19,8 C 18,3 C 18,3 C 66 % 1021,8 hPa 0,0 l/m 0 min 0 min 11 W/m 4,5 km/h (1 Bft) 100,00 %
25.06.2018 21:42 19,8 C 18,3 C 18,3 C 66 % 1021,8 hPa 0,0 l/m 0 min 0 min 9 W/m 2,3 km/h (1 Bft) 100,00 %
25.06.2018 21:44 19,7 C 18,3 C 17,8 C 66 % 1021,9 hPa 0,0 l/m 0 min 0 min 9 W/m 0,0 km/h (0 Bft) 97,87 %
25.06.2018 21:46 19,7 C 18,3 C 17,8 C 66 % 1021,9 hPa 0,0 l/m 0 min 0 min 8 W/m 2,3 km/h (1 Bft) 100,00 %
25.06.2018 21:48 19,6 C 17,8 C 17,8 C 67 % 1021,9 hPa 0,0 l/m 0 min 0 min 7 W/m 2,3 km/h (1 Bft) 95,65 %
25.06.2018 21:50 19,6 C 17,8 C 17,8 C 67 % 1022,0 hPa 0,0 l/m 0 min 0 min 7 W/m 2,3 km/h (1 Bft) 97,87 %
25.06.2018 21:52 19,6 C 17,8 C 17,8 C 66 % 1022,0 hPa 0,0 l/m 0 min 0 min 7 W/m 9,0 km/h (2 Bft) 97,92 %
25.06.2018 21:54 19,5 C 17,8 C 17,8 C 66 % 1022,0 hPa 0,0 l/m 0 min 0 min 5 W/m 4,5 km/h (1 Bft) 95,74 %
25.06.2018 21:56 19,4 C 17,8 C 17,8 C 67 % 1022,0 hPa 0,0 l/m 0 min 0 min 5 W/m 6,8 km/h (2 Bft) 97,87 %
25.06.2018 21:58 19,4 C 17,8 C 17,8 C 67 % 1022,0 hPa 0,0 l/m 0 min 0 min 5 W/m 4,5 km/h (1 Bft) 95,74 %
25.06.2018 22:00 19,3 C 17,8 C 17,8 C 67 % 1022,1 hPa 0,0 l/m 0 min 0 min 4 W/m 2,3 km/h (1 Bft) 95,65 %
25.06.2018 22:02 19,3 C 17,8 C 17,8 C 67 % 1022,1 hPa 0,0 l/m 0 min 0 min 0 W/m 2,3 km/h (1 Bft) 95,74 %
25.06.2018 22:04 19,3 C 17,8 C 17,8 C 68 % 1022,1 hPa 0,0 l/m 0 min 0 min 0 W/m 2,3 km/h (1 Bft) 95,74 %
25.06.2018 22:06 19,2 C 17,2 C 17,2 C 68 % 1022,0 hPa 0,0 l/m 0 min 0 min 0 W/m 4,5 km/h (1 Bft) 97,87 %
25.06.2018 22:08 19,2 C 17,2 C 17,2 C 68 % 1022,1 hPa 0,0 l/m 0 min 0 min 0 W/m 0,0 km/h (0 Bft) 97,87 %
25.06.2018 22:10 19,1 C 17,2 C 17,2 C 68 % 1022,1 hPa 0,0 l/m 0 min 0 min 0 W/m 2,3 km/h (1 Bft) 97,87 %
25.06.2018 22:12 19,1 C 17,2 C 17,2 C 68 % 1022,0 hPa 0,0 l/m 0 min 0 min 0 W/m 0,0 km/h (0 Bft) 95,65 %
25.06.2018 22:14 19,0 C 17,2 C 17,2 C 69 % 1022,1 hPa 0,0 l/m 0 min 0 min 0 W/m 4,5 km/h (1 Bft) 95,74 %
25.06.2018 22:16 18,9 C 17,2 C 16,7 C 69 % 1022,1 hPa 0,0 l/m 0 min 0 min 0 W/m 2,3 km/h (1 Bft) 95,74 %
25.06.2018 22:18 18,9 C 17,2 C 16,7 C 69 % 1022,1 hPa 0,0 l/m 0 min 0 min 0 W/m 4,5 km/h (1 Bft) 93,62 %
25.06.2018 22:20 18,9 C 16,7 C 16,7 C 69 % 1022,1 hPa 0,0 l/m 0 min 0 min 0 W/m 2,3 km/h (1 Bft) 93,62 %
25.06.2018 22:22 18,8 C 16,7 C 16,7 C 69 % 1022,1 hPa 0,0 l/m 0 min 0 min 0 W/m 2,3 km/h (1 Bft) 93,48 %
25.06.2018 22:24 18,8 C 16,7 C 16,7 C 70 % 1022,1 hPa 0,0 l/m 0 min 0 min 0 W/m 4,5 km/h (1 Bft) 93,62 %
25.06.2018 22:26 18,7 C 16,7 C 16,7 C 70 % 1022,2 hPa 0,0 l/m 0 min 0 min 0 W/m 2,3 km/h (1 Bft) 93,62 %
25.06.2018 22:28 18,6 C 16,7 C 16,7 C 70 % 1022,2 hPa 0,0 l/m 0 min 0 min 0 W/m 4,5 km/h (1 Bft) 93,62 %
25.06.2018 22:30 18,5 C 16,7 C 16,7 C 70 % 1022,2 hPa 0,0 l/m 0 min 0 min 0 W/m 2,3 km/h (1 Bft) 93,62 %
25.06.2018 22:32 18,4 C 16,7 C 16,7 C 71 % 1022,3 hPa 0,0 l/m 0 min 0 min 0 W/m 4,5 km/h (1 Bft) 89,36 %
25.06.2018 22:34 18,4 C 16,7 C 16,7 C 71 % 1022,3 hPa 0,0 l/m 0 min 0 min 0 W/m 4,5 km/h (1 Bft) 93,48 %
25.06.2018 22:36 18,3 C 16,7 C 16,7 C 71 % 1022,2 hPa 0,0 l/m 0 min 0 min 0 W/m 4,5 km/h (1 Bft) 93,62 %
25.06.2018 22:38 18,3 C 16,7 C 16,7 C 72 % 1022,4 hPa 0,0 l/m 0 min 0 min 0 W/m 2,3 km/h (1 Bft) 93,62 %
25.06.2018 22:40 18,2 C 16,7 C 16,7 C 72 % 1022,4 hPa 0,0 l/m 0 min 0 min 0 W/m 2,3 km/h (1 Bft) 93,62 %
25.06.2018 22:42 18,2 C 16,1 C 16,7 C 72 % 1022,4 hPa 0,0 l/m 0 min 0 min 0 W/m 2,3 km/h (1 Bft) 93,62 %
25.06.2018 22:44 18,1 C 16,1 C 16,7 C 72 % 1022,4 hPa 0,0 l/m 0 min 0 min 0 W/m 2,3 km/h (1 Bft) 91,49 %
25.06.2018 22:46 18,1 C 16,1 C 16,7 C 72 % 1022,5 hPa 0,0 l/m 0 min 0 min 0 W/m 4,5 km/h (1 Bft) 93,48 %
25.06.2018 22:48 18,0 C 16,1 C 16,7 C 72 % 1022,5 hPa 0,0 l/m 0 min 0 min 0 W/m 4,5 km/h (1 Bft) 93,62 %
25.06.2018 22:50 17,9 C 16,1 C 16,7 C 73 % 1022,5 hPa 0,0 l/m 0 min 0 min 0 W/m 2,3 km/h (1 Bft) 91,49 %
25.06.2018 22:52 17,9 C 16,1 C 16,7 C 73 % 1022,5 hPa 0,0 l/m 0 min 0 min 0 W/m 2,3 km/h (1 Bft) 93,62 %
25.06.2018 22:54 17,8 C 16,1 C 16,1 C 73 % 1022,6 hPa 0,0 l/m 0 min 0 min 0 W/m 2,3 km/h (1 Bft) 93,62 %
25.06.2018 22:56 17,8 C 16,1 C 16,1 C 73 % 1022,6 hPa 0,0 l/m 0 min 0 min 0 W/m 4,5 km/h (1 Bft) 93,62 %
25.06.2018 22:58 17,7 C 16,1 C 16,1 C 73 % 1022,6 hPa 0,0 l/m 0 min 0 min 0 W/m 6,8 km/h (2 Bft) 91,30 %
25.06.2018 23:00 17,7 C 16,1 C 16,1 C 73 % 1022,6 hPa 0,0 l/m 0 min 0 min 0 W/m 6,8 km/h (2 Bft) 97,87 %
25.06.2018 23:02 17,6 C 16,1 C 16,1 C 74 % 1022,6 hPa 0,0 l/m 0 min 0 min 0 W/m 2,3 km/h (1 Bft) 100,00 %
25.06.2018 23:04 17,6 C 16,1 C 16,1 C 74 % 1022,5 hPa 0,0 l/m 0 min 0 min 0 W/m 6,8 km/h (2 Bft) 97,87 %
25.06.2018 23:06 17,5 C 16,1 C 16,1 C 74 % 1022,6 hPa 0,0 l/m 0 min 0 min 0 W/m 2,3 km/h (1 Bft) 95,74 %
25.06.2018 23:08 17,5 C 16,1 C 16,1 C 75 % 1022,7 hPa 0,0 l/m 0 min 0 min 0 W/m 4,5 km/h (1 Bft) 93,62 %
25.06.2018 23:10 17,4 C 16,1 C 16,1 C 75 % 1022,7 hPa 0,0 l/m 0 min 0 min 0 W/m 2,3 km/h (1 Bft) 97,83 %
25.06.2018 23:12 17,4 C 16,1 C 16,1 C 75 % 1022,7 hPa 0,0 l/m 0 min 0 min 0 W/m 2,3 km/h (1 Bft) 97,87 %
25.06.2018 23:14 17,3 C 15,6 C 16,1 C 75 % 1022,6 hPa 0,0 l/m 0 min 0 min 0 W/m 2,3 km/h (1 Bft) 100,00 %
25.06.2018 23:16 17,3 C 15,6 C 16,1 C 76 % 1022,6 hPa 0,0 l/m 0 min 0 min 0 W/m 4,5 km/h (1 Bft) 100,00 %
25.06.2018 23:18 17,3 C 15,6 C 16,1 C 76 % 1022,7 hPa 0,0 l/m 0 min 0 min 0 W/m 4,5 km/h (1 Bft) 97,87 %
25.06.2018 23:20 17,2 C 15,6 C 16,1 C 76 % 1022,7 hPa 0,0 l/m 0 min 0 min 0 W/m 4,5 km/h (1 Bft) 100,00 %
25.06.2018 23:22 17,2 C 15,6 C 16,1 C 77 % 1022,7 hPa 0,0 l/m 0 min 0 min 0 W/m 4,5 km/h (1 Bft) 95,65 %
25.06.2018 23:24 17,1 C 15,6 C 16,1 C 77 % 1022,7 hPa 0,0 l/m 0 min 0 min 0 W/m 2,3 km/h (1 Bft) 100,00 %
25.06.2018 23:26 17,1 C 15,6 C 15,6 C 77 % 1022,7 hPa 0,0 l/m 0 min 0 min 0 W/m 9,0 km/h (2 Bft) 97,87 %
25.06.2018 23:28 17,1 C 15,6 C 15,6 C 77 % 1022,7 hPa 0,0 l/m 0 min 0 min 0 W/m 4,5 km/h (1 Bft) 97,87 %
25.06.2018 23:30 17,0 C 15,6 C 15,6 C 78 % 1022,7 hPa 0,0 l/m 0 min 0 min 0 W/m 6,8 km/h (2 Bft) 95,74 %
25.06.2018 23:32 16,9 C 15,6 C 15,6 C 78 % 1022,7 hPa 0,0 l/m 0 min 0 min 0 W/m 2,3 km/h (1 Bft) 97,83 %
25.06.2018 23:34 16,9 C 15,6 C 15,6 C 78 % 1022,7 hPa 0,0 l/m 0 min 0 min 0 W/m 6,8 km/h (2 Bft) 100,00 %
25.06.2018 23:36 16,9 C 15,6 C 15,6 C 78 % 1022,7 hPa 0,0 l/m 0 min 0 min 0 W/m 0,0 km/h (0 Bft) 100,00 %
25.06.2018 23:38 16,8 C 15,6 C 15,6 C 79 % 1022,7 hPa 0,0 l/m 0 min 0 min 0 W/m 9,0 km/h (2 Bft) 100,00 %
25.06.2018 23:40 16,8 C 15,6 C 15,6 C 79 % 1022,7 hPa 0,0 l/m 0 min 0 min 0 W/m 2,3 km/h (1 Bft) 100,00 %
25.06.2018 23:42 16,8 C 15,6 C 15,6 C 79 % 1022,7 hPa 0,0 l/m 0 min 0 min 0 W/m 6,8 km/h (2 Bft) 100,00 %
25.06.2018 23:44 16,7 C 15,6 C 15,6 C 79 % 1022,7 hPa 0,0 l/m 0 min 0 min 0 W/m 4,5 km/h (1 Bft) 100,00 %
25.06.2018 23:46 16,7 C 15,0 C 15,6 C 79 % 1022,7 hPa 0,0 l/m 0 min 0 min 0 W/m 4,5 km/h (1 Bft) 100,00 %
25.06.2018 23:48 16,7 C 15,0 C 15,6 C 79 % 1022,6 hPa 0,0 l/m 0 min 0 min 0 W/m 9,0 km/h (2 Bft) 100,00 %
25.06.2018 23:50 16,6 C 15,0 C 15,6 C 80 % 1022,6 hPa 0,0 l/m 0 min 0 min 0 W/m 4,5 km/h (1 Bft) 100,00 %
25.06.2018 23:52 16,6 C 15,0 C 15,6 C 80 % 1022,6 hPa 0,0 l/m 0 min 0 min 0 W/m 4,5 km/h (1 Bft) 100,00 %
25.06.2018 23:54 16,6 C 15,0 C 15,6 C 80 % 1022,6 hPa 0,0 l/m 0 min 0 min 0 W/m 9,0 km/h (2 Bft) 100,00 %
25.06.2018 23:56 16,6 C 15,0 C 15,6 C 80 % 1022,6 hPa 0,0 l/m 0 min 0 min 0 W/m 6,8 km/h (2 Bft) 97,83 %
25.06.2018 23:58 16,5 C 15,0 C 15,6 C 80 % 1022,6 hPa 0,0 l/m 0 min 0 min 0 W/m 4,5 km/h (1 Bft) 100,00 %
_ Min-Zeit 07:16 06:08 06:20 18:26 03:46 - - - - 01:40 10:08
Minimum _ 13,6 C 12,8 C 12,2 C 57 % 1020,6 hPa - - - - 0,0 km/h (0 Bft) 89,36 %
_ Max-Zeit 18:36 16:30 18:20 07:38 12:56 00:00 18:08 00:00 14:50 18:08 00:00
Maximum _ 23,1 C 27,2 C 21,7 C 96 % 1023,0 hPa 0,0 l/m 4 min 0 min 1076 W/m 20,3 km/h
NW (4 Bft)
100,00 %
Durchschnitt _ 17,3 C 17,4 C 16,2 C 81 % 1021,9 hPa #0,0 l/m #4:06 h #0 min. 266 W/m 7,8 km/h (2 Bft) 97,58 %
© 2018 W. Hausmann